FW4770 Weather Reports


time (UTC)temp
F
wind
direction
speed
knots
gust
knots
rain 1hr
in
rain 24hr
in
rain mn
in
humidity
%
barometer
mb
20260831150600 80 75 2.6 6.1 0.00 0.00 0.00 87 1011.0
20260831150525 80 63 2.6 6.1 0.00 0.00 0.00 87 1011.0
20260831150429 80 54 2.6 7.8 0.00 0.00 0.00 87 1011.0
20260831150313 80 90 4.3 7.8 0.00 0.00 0.00 86 1011.0
20260831150158 80 107 4.3 7.8 0.00 0.00 0.00 86 1011.0
20260831150027 80 71 4.3 7.8 0.00 0.00 0.00 87 1010.9
20260831145855 80 89 3.5 7.8 0.00 0.00 0.00 88 1010.9
20260831145759 80 71 3.5 7.8 0.00 0.00 0.00 88 1011.0
20260831145704 80 51 4.3 7.8 0.00 0.00 0.00 88 1010.9
20260831145610 80 63 3.5 7.8 0.00 0.00 0.00 88 1010.9
20260831145514 80 46 2.6 7.0 0.00 0.00 0.00 88 1010.9
20260831145418 80 34 3.5 7.0 0.00 0.00 0.00 88 1010.9
20260831145306 80 59 3.5 7.0 0.00 0.00 0.00 87 1010.9
20260831145202 79 59 2.6 8.7 0.00 0.00 0.00 87 1011.0
20260831145107 79 87 2.6 8.7 0.00 0.00 0.00 87 1011.0
20260831145032 79 87 3.5 8.7 0.00 0.00 0.00 87 1010.9
20260831144856 79 68 3.5 8.7 0.00 0.00 0.00 87 1010.9
20260831144801 79 82 3.5 8.7 0.00 0.00 0.00 87 1010.9
20260831144706 79 86 4.3 8.7 0.00 0.00 0.00 87 1010.9
20260831144615 79 66 3.5 8.7 0.00 0.00 0.00 88 1010.9
20260831144519 79 74 3.5 8.7 0.00 0.00 0.00 87 1010.9
20260831144356 79 55 4.3 8.7 0.00 0.00 0.00 87 1010.7
20260831144321 80 30 3.5 8.7 0.00 0.00 0.00 87 1010.7
20260831144225 80 79 2.6 7.0 0.00 0.00 0.00 88 1010.8
20260831144128 80 58 2.6 7.0 0.00 0.00 0.00 88 1010.8
20260831144011 80 53 3.5 7.0 0.00 0.00 0.00 88 1010.7
20260831143916 79 328 3.5 7.0 0.00 0.00 0.00 88 1010.7
20260831143804 79 355 1.7 6.1 0.00 0.00 0.00 88 1010.7
20260831143710 79 39 1.7 6.1 0.00 0.00 0.00 88 1010.7
20260831143554 79 39 2.6 7.8 0.00 0.00 0.00 88 1010.6
20260831143459 79 15 2.6 7.8 0.00 0.00 0.00 88 1010.6
20260831143404 79 19 4.3 7.8 0.00 0.00 0.00 88 1010.7
20260831143309 79 23 4.3 7.8 0.00 0.00 0.00 88 1010.7
20260831143158 79 64 3.5 7.8 0.00 0.00 0.00 87 1010.6
20260831143122 79 72 3.5 7.8 0.00 0.00 0.00 88 1010.6
20260831143027 79 64 3.5 7.8 0.00 0.00 0.00 88 1010.6
20260831142909 79 74 4.3 7.8 0.00 0.00 0.00 87 1010.6
20260831142813 79 45 4.3 7.8 0.00 0.00 0.00 87 1010.6
20260831142658 79 68 4.3 7.8 0.00 0.00 0.00 87 1010.5
20260831142607 79 11 4.3 7.8 0.00 0.00 0.00 87 1010.5
20260831142511 79 35 3.5 10.4 0.00 0.00 0.00 87 1010.6
20260831142356 79 41 3.5 10.4 0.00 0.00 0.00 87 1010.6
20260831142301 79 28 4.3 10.4 0.00 0.00 0.00 88 1010.6
20260831142206 79 69 3.5 10.4 0.00 0.00 0.00 88 1010.6
20260831142111 79 54 4.3 10.4 0.00 0.00 0.00 88 1010.6
20260831141959 79 46 4.3 10.4 0.00 0.00 0.00 88 1010.5
20260831141904 79 345 3.5 10.4 0.00 0.00 0.00 89 1010.5
20260831141809 79 38 5.2 10.4 0.00 0.00 0.00 89 1010.5
20260831141714 79 15 5.2 10.4 0.00 0.00 0.00 89 1010.5
20260831141558 79 9 2.6 5.2 0.00 0.00 0.00 90 1010.4
20260831141503 79 44 2.6 7.0 0.00 0.00 0.00 91 1010.4
20260831141412 79 44 2.6 7.0 0.00 0.00 0.00 90 1010.4
20260831141317 79 31 2.6 7.0 0.00 0.00 0.00 91 1010.4
20260831141200 79 329 2.6 7.0 0.00 0.00 0.00 91 1010.3
20260831141125 78 62 2.6 7.0 0.00 0.00 0.00 91 1010.2
20260831141009 78 38 2.6 7.0 0.00 0.00 0.00 91 1010.2
20260831140854 78 35 2.6 7.0 0.00 0.00 0.00 91 1010.3
20260831140803 78 54 3.5 7.0 0.00 0.00 0.00 91 1010.3
20260831140708 78 34 3.5 7.0 0.00 0.00 0.00 91 1010.3
20260831140613 78 29 2.6 7.0 0.00 0.00 0.00 91 1010.2
20260831140518 78 31 2.6 7.0 0.00 0.00 0.00 91 1010.3
20260831140401 78 29 3.5 7.0 0.00 0.00 0.00 91 1010.2
20260831140306 77 23 4.3 7.0 0.00 0.00 0.00 91 1010.2
20260831140155 77 15 3.5 7.0 0.00 0.00 0.00 91 1010.1
20260831140120 77 34 3.5 7.0 0.00 0.00 0.00 91 1010.1
20260831140004 77 42 3.5 7.0 0.00 0.00 0.00 92 1010.1
20260831135909 77 51 2.6 5.2 0.00 0.00 0.00 92 1010.1
20260831135834 77 53 2.6 5.2 0.00 0.00 0.00 92 1010.1
20260831135717 77 58 2.6 5.2 0.00 0.00 0.00 92 1010.1
20260831135555 77 14 2.6 5.2 0.00 0.00 0.00 92 1010.1
20260831135520 77 39 3.5 5.2 0.00 0.00 0.00 92 1010.1
20260831135428 77 355 3.5 7.8 0.00 0.00 0.00 92 1010.1
20260831135312 77 360 3.5 7.8 0.00 0.00 0.00 93 1010.2
20260831135217 77 360 2.6 7.8 0.00 0.00 0.00 93 1010.1
20260831135059 77 16 2.6 7.8 0.00 0.00 0.00 93 1010.1
20260831135004 77 360 2.6 7.8 0.00 0.00 0.00 93 1010.0
20260831134910 77 37 2.6 7.8 0.00 0.00 0.00 94 1010.0
20260831134757 77 29 1.7 7.8 0.00 0.00 0.00 94 1010.0
20260831134702 77 23 3.5 7.8 0.00 0.00 0.00 94 1010.1
20260831134607 76 24 5.2 7.8 0.00 0.00 0.00 94 1010.1
20260831134532 76 11 5.2 7.8 0.00 0.00 0.00 95 1010.1
20260831134356 76 10 3.5 7.0 0.00 0.00 0.00 95 1010.1
20260831134300 76 5 3.5 7.8 0.00 0.00 0.00 95 1010.1
20260831134225 76 18 3.5 7.8 0.00 0.00 0.00 95 1010.0
20260831134113 76 355 4.3 7.8 0.00 0.00 0.00 95 1010.0
20260831133958 76 21 3.5 7.8 0.00 0.00 0.00 96 1010.0
20260831133902 76 37 2.6 7.8 0.00 0.00 0.00 95 1010.0
20260831133807 76 5 3.5 7.8 0.00 0.00 0.00 95 1010.0
20260831133712 76 30 4.3 7.8 0.00 0.00 0.00 96 1010.1
20260831133558 76 345 4.3 7.8 0.00 0.00 0.00 96 1010.0
20260831133525 75 360 4.3 7.8 0.00 0.00 0.00 96 1010.0
20260831133408 75 355 4.3 7.8 0.00 0.00 0.00 96 1010.0
20260831133313 75 333 3.5 5.2 0.00 0.00 0.00 97 1009.9
20260831133157 75 350 3.5 5.2 0.00 0.00 0.00 97 1010.0
20260831133122 75 355 2.6 5.2 0.00 0.00 0.00 97 1010.0
20260831133025 75 38 2.6 5.2 0.00 0.00 0.00 97 1010.0
20260831132908 75 5 2.6 4.3 0.00 0.00 0.00 97 1010.0
20260831132817 75 5 1.7 4.3 0.00 0.00 0.00 97 1009.9
20260831132721 75 360 1.7 4.3 0.00 0.00 0.00 97 1009.8
20260831132605 75 5 1.7 4.3 0.00 0.00 0.00 97 1009.8
20260831132529 75 5 1.7 4.3 0.00 0.00 0.00 97 1009.8
20260831132413 75 19 2.6 4.3 0.00 0.00 0.00 97 1009.8
20260831132338 75 355 3.5 4.3 0.00 0.00 0.00 97 1009.8
20260831132155 74 343 3.5 4.3 0.00 0.00 0.00 97 1009.8
20260831132059 74 355 2.6 4.3 0.00 0.00 0.00 97 1009.8
20260831132008 74 355 1.7 4.3 0.00 0.00 0.00 97 1009.8
20260831131933 74 338 1.7 4.3 0.00 0.00 0.00 97 1009.8
20260831131757 74 5 3.5 4.3 0.00 0.00 0.00 97 1009.9
20260831131702 74 346 3.5 7.0 0.00 0.00 0.00 98 1009.9
20260831131607 74 338 2.6 7.0 0.00 0.00 0.00 98 1009.9
20260831131512 74 5 1.7 7.0 0.00 0.00 0.00 98 1009.9
20260831131421 74 350 1.7 7.0 0.00 0.00 0.00 98 1009.9
20260831131305 74 348 1.7 7.0 0.00 0.00 0.00 98 1009.9
20260831131230 74 350 1.7 7.0 0.00 0.00 0.00 98 1009.9
20260831131113 74 350 2.6 7.0 0.00 0.00 0.00 98 1009.9
20260831130958 73 348 3.5 7.0 0.00 0.00 0.00 98 1009.8
20260831130903 73 348 3.5 7.0 0.00 0.00 0.00 98 1009.8
20260831130828 73 327 2.6 5.2 0.00 0.00 0.00 98 1009.8
20260831130656 73 22 3.5 5.2 0.00 0.00 0.00 98 1009.9
20260831130601 73 346 3.5 5.2 0.00 0.00 0.00 98 1009.8
20260831130505 73 360 2.6 4.3 0.00 0.00 0.00 98 1009.9
20260831130410 73 5 2.6 4.3 0.00 0.00 0.00 98 1009.9
20260831130315 73 355 1.7 4.3 0.00 0.00 0.00 98 1009.9
20260831130219 73 360 1.7 4.3 0.00 0.00 0.00 98 1009.9
20260831130123 73 355 2.6 4.3 0.00 0.00 0.00 98 1009.8
20260831130011 73 355 2.6 4.3 0.00 0.00 0.00 98 1009.8
20260831125856 73 342 2.6 4.3 0.00 0.00 0.00 98 1009.8
20260831125801 72 346 2.6 4.3 0.00 0.00 0.00 98 1009.8
20260831125706 72 355 1.7 4.3 0.00 0.00 0.00 97 1009.8
20260831125630 72 360 1.7 3.5 0.00 0.00 0.00 97 1009.7
20260831125513 72 360 0.9 3.5 0.00 0.00 0.00 97 1009.8
20260831125402 72 322 1.7 3.5 0.00 0.00 0.00 97 1009.8
20260831125307 72 296 2.6 3.5 0.00 0.00 0.00 97 1009.8
20260831125212 72 296 2.6 3.5 0.00 0.00 0.00 97 1009.8
20260831125057 72 281 0.9 3.5 0.00 0.00 0.00 98 1009.7
20260831125002 72 288 0.9 3.5 0.00 0.00 0.00 98 1009.8
20260831124907 72 288 1.7 3.5 0.00 0.00 0.00 98 1009.8
20260831124755 72 288 1.7 3.5 0.00 0.00 0.00 98 1009.8
20260831124700 72 286 1.7 3.5 0.00 0.00 0.00 97 1009.8
20260831124605 72 255 1.7 3.5 0.00 0.00 0.00 97 1009.8
20260831124509 72 255 1.7 3.5 0.00 0.00 0.00 97 1009.8
20260831124354 72 254 0.9 3.5 0.00 0.00 0.00 97 1009.8
20260831124300 71 254 1.7 3.5 0.00 0.00 0.00 97 1009.7
20260831124207 71 254 1.7 3.5 0.00 0.00 0.00 97 1009.7
20260831124112 71 254 1.7 3.5 0.00 0.00 0.00 97 1009.7
20260831124017 71 254 0.9 3.5 0.00 0.00 0.00 97 1009.7
20260831123855 71 254 1.7 3.5 0.00 0.00 0.00 97 1009.7
20260831123800 71 254 1.7 3.5 0.00 0.00 0.00 97 1009.6
20260831123704 71 229 1.7 2.6 0.00 0.00 0.00 97 1009.7
20260831123613 71 229 1.7 2.6 0.00 0.00 0.00 97 1009.7
20260831123538 71 229 0.9 2.6 0.00 0.00 0.00 97 1009.7
20260831123355 71 229 0.0 2.6 0.00 0.00 0.00 97 1009.7
20260831123300 71 229 0.9 2.6 0.00 0.00 0.00 97 1009.6
20260831123204 71 229 1.7 2.6 0.00 0.00 0.00 97 1009.5
20260831123109 71 229 1.7 2.6 0.00 0.00 0.00 97 1009.5
20260831122958 71 229 1.7 2.6 0.00 0.00 0.00 97 1009.4
20260831122904 71 229 1.7 2.6 0.00 0.00 0.00 97 1009.4
20260831122828 71 229 1.7 2.6 0.00 0.00 0.00 97 1009.4
20260831122712 70 229 0.9 3.5 0.00 0.00 0.00 97 1009.4
20260831122617 70 229 0.9 3.5 0.00 0.00 0.00 97 1009.4
20260831122455 70 229 1.7 3.5 0.00 0.00 0.00 97 1009.4
20260831122404 70 229 1.7 3.5 0.00 0.00 0.00 97 1009.3
20260831122308 70 229 1.7 3.5 0.00 0.00 0.00 97 1009.3
20260831122213 70 229 1.7 3.5 0.00 0.00 0.00 97 1009.3
20260831122058 70 229 1.7 3.5 0.00 0.00 0.00 97 1009.4
20260831122003 70 229 1.7 3.5 0.00 0.00 0.00 97 1009.4
20260831121908 70 229 1.7 3.5 0.00 0.00 0.00 96 1009.4
20260831121757 69 229 1.7 2.6 0.00 0.00 0.00 96 1009.3
20260831121702 69 229 1.7 2.6 0.00 0.00 0.00 97 1009.3
20260831121607 69 229 1.7 2.6 0.00 0.00 0.00 97 1009.3
20260831121512 69 229 1.7 2.6 0.00 0.00 0.00 97 1009.3
20260831121417 69 229 1.7 2.6 0.00 0.00 0.00 97 1009.3
20260831121300 69 229 0.9 2.6 0.00 0.00 0.00 97 1009.3
20260831121208 69 229 0.9 2.6 0.00 0.00 0.00 97 1009.3
20260831121113 69 229 0.9 2.6 0.00 0.00 0.00 97 1009.2
20260831120958 69 229 0.9 2.6 0.00 0.00 0.00 96 1009.3
20260831120903 68 229 0.9 2.6 0.00 0.00 0.00 96 1009.2
20260831120807 68 229 0.9 2.6 0.00 0.00 0.00 96 1009.2
20260831120710 68 229 0.9 2.6 0.00 0.00 0.00 96 1009.1
20260831120559 68 229 1.7 2.6 0.00 0.00 0.00 96 1009.1
20260831120504 68 229 1.7 2.6 0.00 0.00 0.00 96 1009.1
20260831120409 68 229 1.7 2.6 0.00 0.00 0.00 96 1009.1
20260831120254 68 229 1.7 2.6 0.00 0.00 0.00 96 1009.1
20260831120159 68 229 0.9 2.6 0.00 0.00 0.00 96 1009.1
20260831120103 68 229 0.9 2.6 0.00 0.00 0.00 96 1009.2
20260831120012 68 229 0.9 2.6 0.00 0.00 0.00 95 1009.2
20260831115856 68 229 0.9 2.6 0.00 0.00 0.00 95 1009.1
20260831115801 68 229 0.9 2.6 0.00 0.00 0.00 95 1009.1
20260831115706 68 229 0.9 2.6 0.00 0.00 0.00 95 1009.1
20260831115631 68 229 0.9 2.6 0.00 0.00 0.00 95 1009.2
20260831115455 68 229 1.7 2.6 0.00 0.00 0.00 95 1009.1
20260831115404 68 229 0.9 1.7 0.00 0.00 0.00 95 1009.1
20260831115309 68 229 0.9 1.7 0.00 0.00 0.00 95 1009.1
20260831115154 68 229 0.9 1.7 0.00 0.00 0.00 95 1009.2
20260831115056 68 229 1.7 1.7 0.00 0.00 0.00 95 1009.2
20260831115001 68 229 1.7 1.7 0.00 0.00 0.00 95 1009.1
20260831114906 68 229 0.9 1.7 0.00 0.00 0.00 95 1009.1
20260831114755 68 229 0.0 1.7 0.00 0.00 0.00 95 1009.0
20260831114700 68 229 0.0 1.7 0.00 0.00 0.00 95 1009.0
20260831114625 68 229 0.0 1.7 0.00 0.00 0.00 95 1009.0
20260831114508 68 229 0.0 1.7 0.00 0.00 0.00 95 1009.0
20260831114413 68 229 0.0 1.7 0.00 0.00 0.00 95 1008.9
20260831114258 68 229 0.0 1.7 0.00 0.00 0.00 95 1008.9
20260831114202 68 229 0.0 1.7 0.00 0.00 0.00 95 1008.9
20260831114111 68 229 0.9 1.7 0.00 0.00 0.00 95 1008.9
20260831113956 68 229 0.9 1.7 0.00 0.00 0.00 95 1008.9
20260831113901 68 229 0.0 0.9 0.00 0.00 0.00 95 1008.9
20260831113806 68 229 0.0 0.0 0.00 0.00 0.00 95 1008.8
20260831113710 68 229 0.0 0.0 0.00 0.00 0.00 95 1008.8
20260831113615 68 229 0.0 0.0 0.00 0.00 0.00 95 1008.8
20260831113503 68 229 0.0 0.0 0.00 0.00 0.00 95 1008.8
20260831113408 68 229 0.0 0.0 0.00 0.00 0.00 95 1008.8
20260831113313 68 229 0.0 0.0 0.00 0.00 0.00 95 1008.8
20260831113158 69 229 0.0 0.0 0.00 0.00 0.00 95 1008.8
20260831113102 69 229 0.0 0.0 0.00 0.00 0.00 95 1008.9
20260831113007 69 229 0.0 0.0 0.00 0.00 0.00 95 1008.9
20260831112856 69 229 0.0 0.0 0.00 0.00 0.00 95 1008.8
20260831112801 69 229 0.0 0.0 0.00 0.00 0.00 95 1008.7
20260831112706 69 229 0.0 0.0 0.00 0.00 0.00 95 1008.7
20260831112610 69 229 0.0 0.0 0.00 0.00 0.00 95 1008.8
20260831112455 69 229 0.0 0.0 0.00 0.00 0.00 95 1008.8
20260831112419 69 229 0.0 0.0 0.00 0.00 0.00 95 1008.8
20260831112307 69 229 0.0 0.0 0.00 0.00 0.00 95 1008.8
20260831112212 69 229 0.0 0.0 0.00 0.00 0.00 95 1008.8
20260831112134 69 229 0.0 0.0 0.00 0.00 0.00 95 1008.7
20260831111958 69 229 0.0 0.0 0.00 0.00 0.00 95 1008.7
20260831111903 69 229 0.0 0.0 0.00 0.00 0.00 95 1008.8
20260831111808 69 229 0.0 0.0 0.00 0.00 0.00 95 1008.8
20260831111657 69 229 0.0 0.0 0.00 0.00 0.00 95 1008.8
20260831111601 69 229 0.0 0.0 0.00 0.00 0.00 95 1008.8
20260831111506 69 229 0.0 0.0 0.00 0.00 0.00 95 1008.8
20260831111411 69 229 0.0 0.0 0.00 0.00 0.00 95 1008.8
20260831111256 69 229 0.0 0.0 0.00 0.00 0.00 95 1008.8
20260831111201 69 229 0.0 0.0 0.00 0.00 0.00 95 1008.8
20260831111109 69 229 0.0 0.0 0.00 0.00 0.00 95 1008.8
20260831111011 70 229 0.0 0.9 0.00 0.00 0.00 95 1008.8
20260831110855 70 229 0.0 0.9 0.00 0.00 0.00 95 1008.8
20260831110800 70 229 0.0 0.9 0.00 0.00 0.00 95 1008.8
20260831110705 70 229 0.0 0.9 0.00 0.00 0.00 95 1008.7
20260831110629 70 229 0.0 0.9 0.00 0.00 0.00 95 1008.7
20260831110457 70 229 0.0 0.9 0.00 0.00 0.00 95 1008.7
20260831110401 70 229 0.0 0.9 0.00 0.00 0.00 95 1008.7
20260831110306 70 229 0.0 0.9 0.00 0.00 0.00 95 1008.7
20260831110211 70 229 0.0 0.9 0.00 0.00 0.00 95 1008.6
20260831110117 70 229 0.0 0.9 0.00 0.00 0.00 95 1008.6
20260831105954 70 229 0.0 0.9 0.00 0.00 0.00 95 1008.6
20260831105903 70 229 0.0 0.9 0.00 0.00 0.00 95 1008.6
20260831105808 70 229 0.0 0.9 0.00 0.00 0.00 95 1008.6
20260831105713 70 229 0.0 0.9 0.00 0.00 0.00 95 1008.5
20260831105618 70 229 0.0 0.9 0.00 0.00 0.00 95 1008.6
20260831105456 70 229 0.0 0.9 0.00 0.00 0.00 95 1008.6
20260831105401 70 229 0.0 0.9 0.00 0.00 0.00 95 1008.6
20260831105310 71 229 0.0 1.7 0.00 0.00 0.00 95 1008.6
20260831105155 70 229 0.0 2.6 0.00 0.00 0.00 95 1008.5
20260831105120 71 229 0.9 2.6 0.00 0.00 0.00 95 1008.6
20260831105003 70 229 0.0 2.6 0.00 0.00 0.00 95 1008.6
20260831104928 71 229 0.0 2.6 0.00 0.00 0.00 95 1008.6
20260831104813 71 229 0.0 2.6 0.00 0.00 0.00 95 1008.6
20260831104717 71 229 0.0 2.6 0.00 0.00 0.00 95 1008.6
20260831104605 71 229 0.9 2.6 0.00 0.00 0.00 95 1008.6
20260831104510 71 229 0.9 2.6 0.00 0.00 0.00 95 1008.6
20260831104354 71 229 0.9 2.6 0.00 0.00 0.00 95 1008.5
20260831104259 71 229 0.9 2.6 0.00 0.00 0.00 95 1008.6
20260831104204 71 229 0.9 2.6 0.00 0.00 0.00 95 1008.6
20260831104128 71 229 0.9 2.6 0.00 0.00 0.00 95 1008.6
20260831104012 71 229 1.7 2.6 0.00 0.00 0.00 95 1008.6
20260831103900 71 229 1.7 2.6 0.00 0.00 0.00 95 1008.5
20260831103805 71 229 1.7 2.6 0.00 0.00 0.00 95 1008.6
20260831103729 71 229 0.9 2.6 0.00 0.00 0.00 95 1008.6
20260831103613 71 229 0.9 2.6 0.00 0.00 0.00 95 1008.5
20260831103518 71 229 0.9 2.6 0.00 0.00 0.00 95 1008.6
20260831103422 71 229 0.9 2.6 0.00 0.00 0.00 95 1008.5
20260831103306 71 229 0.9 2.6 0.00 0.00 0.00 95 1008.5
20260831103155 71 229 0.9 2.6 0.00 0.00 0.00 95 1008.7
20260831103120 71 229 0.9 2.6 0.00 0.00 0.00 95 1008.6
20260831103004 71 229 1.7 2.6 0.00 0.00 0.00 95 1008.7
20260831102907 71 229 1.7 2.6 0.00 0.00 0.00 95 1008.7
20260831102812 71 229 0.9 2.6 0.00 0.00 0.00 95 1008.7
20260831102657 71 229 0.9 2.6 0.00 0.00 0.00 95 1008.7
20260831102621 71 229 0.9 2.6 0.00 0.00 0.00 95 1008.7
20260831102525 71 229 1.7 2.6 0.00 0.00 0.00 95 1008.6
20260831102413 71 229 1.7 2.6 0.00 0.00 0.00 95 1008.6
20260831102318 71 229 1.7 3.5 0.00 0.00 0.00 95 1008.6
20260831102156 71 229 1.7 3.5 0.00 0.00 0.00 95 1008.6
20260831102120 71 229 1.7 3.5 0.00 0.00 0.00 95 1008.6
20260831102002 71 228 0.9 3.5 0.00 0.00 0.00 95 1008.6
20260831101907 71 228 0.9 3.5 0.00 0.00 0.00 95 1008.6
20260831101756 71 228 1.7 3.5 0.00 0.00 0.00 95 1008.6
20260831101720 71 228 1.7 3.5 0.00 0.00 0.00 95 1008.6
20260831101558 71 228 2.6 3.5 0.00 0.00 0.00 95 1008.5
20260831101503 71 225 2.6 3.5 0.00 0.00 0.00 95 1008.5
20260831101408 71 225 1.7 3.5 0.00 0.00 0.00 95 1008.5
20260831101313 71 225 0.9 3.5 0.00 0.00 0.00 95 1008.4
20260831101201 71 225 0.9 3.5 0.00 0.00 0.00 95 1008.6
20260831101106 71 225 0.0 3.5 0.00 0.00 0.00 95 1008.6
20260831101031 71 225 0.9 3.5 0.00 0.00 0.00 95 1008.5
20260831100855 71 225 1.7 3.5 0.00 0.00 0.00 95 1008.4
20260831100800 71 225 1.7 3.5 0.00 0.00 0.00 95 1008.4
20260831100705 71 225 1.7 3.5 0.00 0.00 0.00 95 1008.4
20260831100629 71 225 2.6 3.5 0.00 0.00 0.00 95 1008.4
20260831100516 71 225 2.6 3.5 0.00 0.00 0.00 95 1008.4
20260831100354 71 225 1.7 3.5 0.00 0.00 0.00 95 1008.4
20260831100320 71 225 1.7 3.5 0.00 0.00 0.00 95 1008.4
20260831100158 71 225 1.7 3.5 0.00 0.00 0.00 95 1008.4
20260831100007 71 224 2.6 3.5 0.00 0.00 0.00 94 1008.4
20260831095916 71 224 2.6 3.5 0.00 0.00 0.00 94 1008.4
20260831095754 71 224 2.6 3.5 0.00 0.00 0.00 94 1008.3
20260831095719 71 223 1.7 3.5 0.00 0.00 0.00 94 1008.4
20260831095623 71 223 1.7 3.5 0.00 0.00 0.00 94 1008.4
20260831095507 71 223 1.7 3.5 0.00 0.00 0.00 94 1008.4
20260831095412 71 223 2.6 3.5 0.00 0.00 0.00 94 1008.4
20260831095301 71 223 2.6 3.5 0.00 0.00 0.00 94 1008.4
20260831095206 71 233 2.6 3.5 0.00 0.00 0.00 94 1008.4
20260831095110 71 232 2.6 3.5 0.00 0.00 0.00 94 1008.5
20260831095016 71 232 2.6 3.5 0.00 0.00 0.00 94 1008.4
20260831094854 71 232 1.7 3.5 0.00 0.00 0.00 94 1008.5
20260831094819 71 232 1.7 3.5 0.00 0.00 0.00 94 1008.5
20260831094703 71 232 1.7 3.5 0.00 0.00 0.00 94 1008.4
20260831094632 71 232 1.7 3.5 0.00 0.00 0.00 94 1008.4
20260831094515 71 232 1.7 3.5 0.00 0.00 0.00 94 1008.5
20260831094441 71 232 2.6 3.5 0.00 0.00 0.00 94 1008.4
20260831094258 71 232 2.6 3.5 0.00 0.00 0.00 94 1008.4
20260831094203 71 232 2.6 3.5 0.00 0.00 0.00 93 1008.5
20260831094108 71 232 1.7 2.6 0.00 0.00 0.00 93 1008.5
20260831094012 71 232 1.7 2.6 0.00 0.00 0.00 93 1008.4
20260831093901 71 232 1.7 2.6 0.00 0.00 0.00 93 1008.4
20260831093805 71 232 1.7 2.6 0.00 0.00 0.00 93 1008.4
20260831093709 71 232 1.7 2.6 0.00 0.00 0.00 93 1008.5
20260831093634 71 232 1.7 2.6 0.00 0.00 0.00 93 1008.4
20260831093518 72 232 1.7 2.6 0.00 0.00 0.00 93 1008.4
20260831093356 72 232 1.7 2.6 0.00 0.00 0.00 93 1008.4
20260831093305 72 232 1.7 2.6 0.00 0.00 0.00 93 1008.4
20260831093230 72 232 1.7 2.6 0.00 0.00 0.00 93 1008.4
20260831093113 72 232 1.7 3.5 0.00 0.00 0.00 93 1008.4
20260831092958 72 232 0.9 3.5 0.00 0.00 0.00 93 1008.5
20260831092923 72 232 0.9 3.5 0.00 0.00 0.00 93 1008.5
20260831092807 72 232 0.9 3.5 0.00 0.00 0.00 93 1008.5
20260831092712 72 232 1.7 3.5 0.00 0.00 0.00 93 1008.4
20260831092621 72 232 1.7 3.5 0.00 0.00 0.00 93 1008.5
20260831092457 72 232 1.7 3.5 0.00 0.00 0.00 93 1008.6
20260831092402 72 232 1.7 3.5 0.00 0.00 0.00 93 1008.5
20260831092307 72 232 1.7 3.5 0.00 0.00 0.00 93 1008.5
20260831092231 72 232 1.7 2.6 0.00 0.00 0.00 93 1008.5
20260831092112 72 232 1.7 2.6 0.00 0.00 0.00 93 1008.5
20260831092017 72 232 1.7 3.5 0.00 0.00 0.00 93 1008.5
20260831091905 72 232 1.7 3.5 0.00 0.00 0.00 93 1008.5
20260831091810 72 232 0.9 4.3 0.00 0.00 0.00 93 1008.5
20260831091655 72 232 1.7 4.3 0.00 0.00 0.00 93 1008.6
20260831091600 72 232 1.7 4.3 0.00 0.00 0.00 93 1008.6
20260831091505 72 232 1.7 4.3 0.00 0.00 0.00 93 1008.6
20260831091410 72 232 1.7 4.3 0.00 0.00 0.00 93 1008.6
20260831091259 72 232 2.6 4.3 0.00 0.00 0.00 93 1008.6
20260831091204 72 232 2.6 4.3 0.00 0.00 0.00 93 1008.5
20260831091107 72 238 2.6 4.3 0.00 0.00 0.00 93 1008.5
20260831091032 72 238 2.6 4.3 0.00 0.00 0.00 93 1008.6
20260831090915 72 255 2.6 5.2 0.00 0.00 0.00 93 1008.6
20260831090759 72 256 2.6 5.2 0.00 0.00 0.00 93 1008.6
20260831090704 72 257 1.7 5.2 0.00 0.00 0.00 93 1008.6
20260831090633 72 261 1.7 5.2 0.00 0.00 0.00 93 1008.6
20260831090517 72 265 1.7 5.2 0.00 0.00 0.00 93 1008.7
20260831090441 72 265 0.9 5.2 0.00 0.00 0.00 93 1008.7
20260831090258 72 265 1.7 5.2 0.00 0.00 0.00 93 1008.6
20260831090203 72 265 1.7 5.2 0.00 0.00 0.00 93 1008.7
20260831090107 72 265 1.7 5.2 0.00 0.00 0.00 93 1008.7
20260831085956 72 242 1.7 3.5 0.00 0.00 0.00 93 1008.7
20260831085901 72 242 1.7 3.5 0.00 0.00 0.00 93 1008.6
20260831085805 72 242 1.7 3.5 0.00 0.00 0.00 93 1008.6
20260831085710 72 240 1.7 3.5 0.00 0.00 0.00 93 1008.6
20260831085555 72 240 1.7 3.5 0.00 0.00 0.00 93 1008.4
20260831085500 72 240 2.6 3.5 0.00 0.00 0.00 93 1008.4
20260831085408 72 240 2.6 4.3 0.00 0.00 0.00 93 1008.4
20260831085313 72 241 2.6 4.3 0.00 0.00 0.00 93 1008.4
20260831085158 72 241 1.7 4.3 0.00 0.00 0.00 93 1008.4
20260831085103 72 241 1.7 4.3 0.00 0.00 0.00 92 1008.4
20260831085008 72 244 1.7 4.3 0.00 0.00 0.00 92 1008.4
20260831084913 72 244 1.7 4.3 0.00 0.00 0.00 92 1008.4
20260831084802 72 244 1.7 4.3 0.00 0.00 0.00 92 1008.4
20260831084706 72 244 2.6 4.3 0.00 0.00 0.00 92 1008.4
20260831084631 72 244 2.6 4.3 0.00 0.00 0.00 92 1008.4
20260831084516 72 234 2.6 3.5 0.00 0.00 0.00 92 1008.3
20260831084354 73 234 2.6 3.5 0.00 0.00 0.00 92 1008.4
20260831084259 73 235 1.7 3.5 0.00 0.00 0.00 92 1008.4
20260831084224 73 234 1.7 2.6 0.00 0.00 0.00 92 1008.5
20260831084131 73 234 1.7 2.6 0.00 0.00 0.00 92 1008.5
20260831083955 73 234 1.7 2.6 0.00 0.00 0.00 92 1008.5
20260831083920 73 235 1.7 2.6 0.00 0.00 0.00 92 1008.5
20260831083758 73 235 1.7 2.6 0.00 0.00 0.00 92 1008.5
20260831083703 73 235 1.7 2.6 0.00 0.00 0.00 92 1008.5
20260831083608 73 234 1.7 3.5 0.00 0.00 0.00 92 1008.5
20260831083518 73 234 0.9 3.5 0.00 0.00 0.00 92 1008.4
20260831083356 73 234 0.9 3.5 0.00 0.00 0.00 92 1008.5
20260831083301 73 234 0.9 3.5 0.00 0.00 0.00 92 1008.5
20260831083204 73 234 1.7 4.3 0.00 0.00 0.00 92 1008.4
20260831083109 73 234 1.7 4.3 0.00 0.00 0.00 92 1008.4
20260831083034 73 234 0.9 6.1 0.00 0.00 0.00 92 1008.5
20260831082902 73 234 1.7 6.1 0.00 0.00 0.00 92 1008.4
20260831082807 73 234 1.7 6.1 0.00 0.00 0.00 92 1008.4
20260831082712 73 234 1.7 6.1 0.00 0.00 0.00 92 1008.4
20260831082618 73 234 2.6 6.1 0.00 0.00 0.00 92 1008.3
20260831082456 73 234 2.6 6.1 0.00 0.00 0.00 92 1008.3
20260831082401 73 234 3.5 6.1 0.00 0.00 0.00 92 1008.2
20260831082310 73 234 3.5 6.1 0.00 0.00 0.00 92 1008.2
20260831082155 73 236 2.6 6.1 0.00 0.00 0.00 92 1008.2
20260831082119 73 229 2.6 6.1 0.00 0.00 0.00 92 1008.2
20260831082003 73 229 2.6 7.0 0.00 0.00 0.00 92 1008.2
20260831081907 73 229 2.6 7.0 0.00 0.00 0.00 92 1008.2
20260831081811 73 238 2.6 7.0 0.00 0.00 0.00 92 1008.2
20260831081700 73 238 2.6 7.0 0.00 0.00 0.00 92 1008.2
20260831081605 73 238 2.6 7.0 0.00 0.00 0.00 91 1008.2
20260831081510 73 237 2.6 7.0 0.00 0.00 0.00 92 1008.1
20260831081415 73 237 2.6 7.0 0.00 0.00 0.00 91 1008.1
20260831081320 73 237 3.5 7.0 0.00 0.00 0.00 92 1008.1
20260831081158 73 258 4.3 7.0 0.00 0.00 0.00 92 1008.2
20260831081123 73 234 4.3 7.0 0.00 0.00 0.00 92 1008.2
20260831081027 73 240 4.3 7.0 0.00 0.00 0.00 92 1008.2
20260831080855 73 232 3.5 7.0 0.00 0.00 0.00 91 1008.1
20260831080819 73 269 4.3 7.0 0.00 0.00 0.00 92 1008.2
20260831080703 73 217 4.3 7.0 0.00 0.00 0.00 92 1008.2
20260831080608 73 242 4.3 7.0 0.00 0.00 0.00 92 1008.2
20260831080513 73 251 4.3 7.0 0.00 0.00 0.00 92 1008.3
20260831080357 73 257 4.3 7.0 0.00 0.00 0.00 92 1008.2
20260831080306 73 255 4.3 7.8 0.00 0.00 0.00 92 1008.2
20260831080210 73 230 4.3 7.8 0.00 0.00 0.00 91 1008.1
20260831080115 73 246 3.5 7.8 0.00 0.00 0.00 91 1008.2
20260831080019 73 252 3.5 7.8 0.00 0.00 0.00 91 1008.2
20260831075903 73 249 3.5 7.8 0.00 0.00 0.00 91 1008.2
20260831075807 73 238 4.3 7.8 0.00 0.00 0.00 91 1008.2
20260831075656 73 236 4.3 7.8 0.00 0.00 0.00 91 1008.2
20260831075601 73 227 4.3 7.8 0.00 0.00 0.00 91 1008.2
20260831075506 73 219 4.3 7.8 0.00 0.00 0.00 91 1008.2
20260831075410 73 232 4.3 7.8 0.00 0.00 0.00 91 1008.2
20260831075315 73 227 3.5 6.1 0.00 0.00 0.00 91 1008.3
20260831075241 73 253 4.3 7.0 0.00 0.00 0.00 91 1008.3
20260831075058 73 237 3.5 7.0 0.00 0.00 0.00 91 1008.3
20260831075026 73 217 3.5 7.0 0.00 0.00 0.00 91 1008.3
20260831074910 73 215 2.6 7.0 0.00 0.00 0.00 91 1008.3
20260831074755 73 236 3.5 7.0 0.00 0.00 0.00 91 1008.3
20260831074659 73 236 3.5 7.0 0.00 0.00 0.00 91 1008.3
20260831074624 73 232 3.5 7.0 0.00 0.00 0.00 91 1008.4
20260831074528 73 238 3.5 7.0 0.00 0.00 0.00 91 1008.4
20260831074432 73 242 3.5 7.0 0.00 0.00 0.00 91 1008.3
20260831074300 73 233 3.5 6.1 0.00 0.00 0.00 91 1008.3
20260831074225 73 240 3.5 6.1 0.00 0.00 0.00 91 1008.3
20260831074129 73 243 3.5 6.1 0.00 0.00 0.00 91 1008.3
20260831074012 73 253 3.5 6.1 0.00 0.00 0.00 91 1008.3
20260831073857 73 229 3.5 4.3 0.00 0.00 0.00 91 1008.3
20260831073802 73 229 2.6 4.3 0.00 0.00 0.00 91 1008.4
20260831073707 73 227 2.6 4.3 0.00 0.00 0.00 91 1008.4
20260831073555 73 227 2.6 4.3 0.00 0.00 0.00 91 1008.4
20260831073520 73 227 2.6 4.3 0.00 0.00 0.00 91 1008.4
20260831073358 73 225 2.6 4.3 0.00 0.00 0.00 91 1008.4
20260831073303 73 225 2.6 4.3 0.00 0.00 0.00 91 1008.4
20260831073228 73 225 2.6 4.3 0.00 0.00 0.00 91 1008.4
20260831073132 73 221 2.6 4.3 0.00 0.00 0.00 91 1008.4
20260831073013 73 221 2.6 4.3 0.00 0.00 0.00 91 1008.3
20260831072901 73 242 2.6 5.2 0.00 0.00 0.00 90 1008.5
20260831072806 73 241 2.6 5.2 0.00 0.00 0.00 90 1008.5
20260831072711 73 241 2.6 5.2 0.00 0.00 0.00 90 1008.4
20260831072616 73 246 2.6 5.2 0.00 0.00 0.00 90 1008.5
20260831072454 73 240 2.6 5.2 0.00 0.00 0.00 90 1008.5
20260831072419 73 243 3.5 5.2 0.00 0.00 0.00 90 1008.4
20260831072307 73 229 3.5 5.2 0.00 0.00 0.00 90 1008.4
20260831072212 73 229 3.5 5.2 0.00 0.00 0.00 90 1008.4
20260831072057 73 229 3.5 5.2 0.00 0.00 0.00 90 1008.4
20260831072002 73 234 3.5 5.2 0.00 0.00 0.00 90 1008.4
20260831071907 73 236 3.5 5.2 0.00 0.00 0.00 90 1008.4
20260831071812 73 235 3.5 5.2 0.00 0.00 0.00 90 1008.5
20260831071701 73 240 3.5 7.0 0.00 0.00 0.00 90 1008.5
20260831071605 73 205 3.5 7.0 0.00 0.00 0.00 90 1008.5
20260831071510 73 233 3.5 7.0 0.00 0.00 0.00 90 1008.5
20260831071355 73 237 3.5 7.0 0.00 0.00 0.00 90 1008.6
20260831071300 73 237 3.5 7.0 0.00 0.00 0.00 90 1008.6
20260831071205 73 259 3.5 7.0 0.00 0.00 0.00 90 1008.6
20260831071114 73 224 3.5 7.0 0.00 0.00 0.00 90 1008.6
20260831071018 73 244 3.5 7.0 0.00 0.00 0.00 90 1008.6
20260831070856 73 234 3.5 8.7 0.00 0.00 0.00 90 1008.6
20260831070821 73 248 3.5 8.7 0.00 0.00 0.00 90 1008.6
20260831070705 73 250 3.5 8.7 0.00 0.00 0.00 90 1008.6
20260831070610 73 239 3.5 8.7 0.00 0.00 0.00 90 1008.6
20260831070459 73 223 3.5 8.7 0.00 0.00 0.00 90 1008.5
20260831070404 73 214 4.3 8.7 0.00 0.00 0.00 90 1008.4
20260831070309 73 213 5.2 8.7 0.00 0.00 0.00 90 1008.4
20260831070212 73 234 4.3 8.7 0.00 0.00 0.00 90 1008.5
20260831070057 73 213 3.5 7.0 0.00 0.00 0.00 90 1008.4
20260831070001 73 229 4.3 7.0 0.00 0.00 0.00 90 1008.5
20260831065910 73 233 4.3 7.0 0.00 0.00 0.00 90 1008.5
20260831065812 73 234 4.3 7.0 0.00 0.00 0.00 90 1008.5
20260831065657 73 257 3.5 7.0 0.00 0.00 0.00 90 1008.6
20260831065602 73 222 3.5 7.0 0.00 0.00 0.00 90 1008.6
20260831065507 73 223 4.3 7.0 0.00 0.00 0.00 90 1008.6
20260831065411 73 224 4.3 7.0 0.00 0.00 0.00 90 1008.6
20260831065300 73 224 4.3 7.0 0.00 0.00 0.00 90 1008.6
20260831065225 73 220 4.3 5.2 0.00 0.00 0.00 90 1008.6
20260831065106 73 221 3.5 6.1 0.00 0.00 0.00 90 1008.6
20260831065011 73 219 2.6 6.1 0.00 0.00 0.00 90 1008.7
20260831064916 74 240 3.5 6.1 0.00 0.00 0.00 90 1008.7
20260831064759 74 230 3.5 6.1 0.00 0.00 0.00 90 1008.7
20260831064704 74 241 3.5 6.1 0.00 0.00 0.00 90 1008.7
20260831064633 74 221 3.5 6.1 0.00 0.00 0.00 89 1008.7
20260831064537 74 220 3.5 6.1 0.00 0.00 0.00 89 1008.6
20260831064354 74 219 4.3 6.1 0.00 0.00 0.00 89 1008.6
20260831064259 74 211 4.3 6.1 0.00 0.00 0.00 89 1008.7
20260831064203 74 217 4.3 6.1 0.00 0.00 0.00 89 1008.8
20260831064107 74 207 3.5 6.1 0.00 0.00 0.00 89 1008.8
20260831063956 74 223 3.5 5.2 0.00 0.00 0.00 89 1008.8
20260831063900 74 214 3.5 5.2 0.00 0.00 0.00 89 1008.8
20260831063805 74 222 3.5 5.2 0.00 0.00 0.00 89 1008.8
20260831063709 74 214 2.6 4.3 0.00 0.00 0.00 89 1008.8
20260831063633 74 211 2.6 7.0 0.00 0.00 0.00 89 1008.9
20260831063516 74 211 2.6 7.0 0.00 0.00 0.00 89 1008.9
20260831063420 74 223 2.6 7.0 0.00 0.00 0.00 89 1008.9
20260831063258 74 243 3.5 7.0 0.00 0.00 0.00 89 1008.9
20260831063207 74 248 3.5 7.0 0.00 0.00 0.00 89 1008.9
20260831063112 74 223 3.5 7.0 0.00 0.00 0.00 89 1008.9
20260831063037 74 221 3.5 7.0 0.00 0.00 0.00 89 1008.9
20260831062854 74 225 3.5 7.0 0.00 0.00 0.00 89 1008.8
20260831062759 74 241 3.5 6.1 0.00 0.00 0.00 89 1008.8
20260831062704 74 234 3.5 7.0 0.00 0.00 0.00 89 1008.8
20260831062613 74 234 3.5 7.0 0.00 0.00 0.00 89 1008.8
20260831062539 74 229 3.5 7.0 0.00 0.00 0.00 89 1008.8
20260831062355 74 216 2.6 7.0 0.00 0.00 0.00 89 1008.9
20260831062300 74 236 2.6 7.0 0.00 0.00 0.00 89 1009.0
20260831062204 74 236 3.5 7.0 0.00 0.00 0.00 89 1009.0
20260831062129 74 250 3.5 7.0 0.00 0.00 0.00 89 1009.0
20260831062013 74 255 4.3 7.0 0.00 0.00 0.00 89 1009.0
20260831061902 74 240 5.2 7.0 0.00 0.00 0.00 89 1008.9
20260831061807 74 231 4.3 7.8 0.00 0.00 0.00 89 1008.9
20260831061712 74 261 3.5 7.8 0.00 0.00 0.00 89 1008.9
20260831061556 74 211 2.6 7.0 0.00 0.00 0.00 89 1009.0
20260831061501 74 237 3.5 7.0 0.00 0.00 0.00 89 1009.0
20260831061426 74 247 4.3 7.0 0.00 0.00 0.00 89 1009.0
20260831061254 74 236 3.5 7.0 0.00 0.00 0.00 89 1009.1
20260831061159 74 235 2.6 7.0 0.00 0.00 0.00 89 1009.1
20260831061123 74 234 2.6 7.0 0.00 0.00 0.00 89 1009.0
20260831061007 74 244 3.5 7.0 0.00 0.00 0.00 89 1009.0
20260831060912 74 249 3.5 7.0 0.00 0.00 0.00 88 1009.0
20260831060757 74 263 3.5 7.0 0.00 0.00 0.00 88 1008.9
20260831060706 74 232 2.6 7.0 0.00 0.00 0.00 88 1008.9
20260831060611 74 242 2.6 7.0 0.00 0.00 0.00 88 1009.0
20260831060516 74 247 3.5 7.0 0.00 0.00 0.00 88 1009.0
20260831060354 74 250 3.5 7.0 0.00 0.00 0.00 88 1009.0
20260831060259 74 236 4.3 7.0 0.00 0.00 0.00 88 1008.9
20260831060204 74 239 4.3 7.0 0.00 0.00 0.00 88 1008.9
20260831060112 74 236 3.5 8.7 0.00 0.00 0.00 88 1008.9
20260831055957 74 232 3.5 9.6 0.00 0.00 0.00 88 1009.0
20260831055902 74 244 4.3 9.6 0.00 0.00 0.00 88 1008.9
20260831055807 74 223 4.3 9.6 0.00 0.00 0.00 88 1008.9
20260831055712 74 247 3.5 9.6 0.00 0.00 0.00 88 1009.0
20260831055556 74 234 3.5 9.6 0.00 0.00 0.00 88 1009.0
20260831055525 74 236 4.3 9.6 0.00 0.00 0.00 88 1009.0
20260831055428 74 234 5.2 9.6 0.00 0.00 0.00 88 1009.0
20260831055311 74 238 5.2 9.6 0.00 0.00 0.00 88 1009.0
20260831055216 74 220 4.3 7.8 0.00 0.00 0.00 88 1009.0
20260831055120 74 209 3.5 7.8 0.00 0.00 0.00 88 1008.9
20260831055004 74 239 3.5 7.8 0.00 0.00 0.00 88 1009.1
20260831054929 74 234 4.3 7.8 0.00 0.00 0.00 88 1009.1
20260831054812 74 246 5.2 7.8 0.00 0.00 0.00 88 1009.1
20260831054701 74 244 5.2 7.0 0.00 0.00 0.00 88 1009.1
20260831054606 74 228 4.3 7.0 0.00 0.00 0.00 88 1009.1
20260831054511 74 229 4.3 7.0 0.00 0.00 0.00 88 1009.1
20260831054356 74 232 4.3 7.8 0.00 0.00 0.00 88 1009.1
20260831054301 74 230 3.5 7.8 0.00 0.00 0.00 88 1009.2
20260831054205 74 251 2.6 9.6 0.00 0.00 0.00 88 1009.2
20260831054134 74 236 1.7 9.6 0.00 0.00 0.00 88 1009.2
20260831054017 74 236 2.6 9.6 0.00 0.00 0.00 88 1009.2
20260831053901 74 236 3.5 9.6 0.00 0.00 0.00 88 1009.1
20260831053806 74 236 3.5 9.6 0.00 0.00 0.00 88 1009.1
20260831053731 74 235 3.5 9.6 0.00 0.00 0.00 87 1009.1
20260831053555 74 238 4.3 9.6 0.00 0.00 0.00 88 1009.2
20260831053520 74 234 5.2 9.6 0.00 0.00 0.00 87 1009.1
20260831053407 74 222 4.3 7.0 0.00 0.00 0.00 87 1009.1
20260831053312 74 229 4.3 7.0 0.00 0.00 0.00 87 1009.2
20260831053237 74 257 2.6 6.1 0.00 0.00 0.00 87 1009.4
20260831053141 74 244 2.6 6.1 0.00 0.00 0.00 87 1009.4
20260831052958 75 236 2.6 6.1 0.00 0.00 0.00 87 1009.5
20260831052922 74 232 2.6 6.1 0.00 0.00 0.00 87 1009.5
20260831052806 75 233 2.6 6.1 0.00 0.00 0.00 87 1009.5
20260831052655 75 246 2.6 6.1 0.00 0.00 0.00 87 1009.5
20260831052620 75 245 2.6 6.1 0.00 0.00 0.00 87 1009.5
20260831052458 75 252 2.6 6.1 0.00 0.00 0.00 87 1009.5
20260831052402 75 236 2.6 6.1 0.00 0.00 0.00 87 1009.5
20260831052307 75 237 3.5 6.1 0.00 0.00 0.00 87 1009.5
20260831052212 75 259 3.5 7.8 0.00 0.00 0.00 87 1009.5
20260831052101 75 248 4.3 7.8 0.00 0.00 0.00 87 1009.5
20260831052005 75 227 4.3 7.8 0.00 0.00 0.00 87 1009.5
20260831051910 75 248 4.3 7.8 0.00 0.00 0.00 87 1009.5
20260831051755 75 237 3.5 7.8 0.00 0.00 0.00 87 1009.5
20260831051719 75 250 3.5 7.8 0.00 0.00 0.00 87 1009.5
20260831051623 75 234 4.3 7.8 0.00 0.00 0.00 87 1009.5
20260831051507 75 239 5.2 7.8 0.00 0.00 0.00 87 1009.5
20260831051356 75 235 4.3 8.7 0.00 0.00 0.00 87 1009.6
20260831051321 75 240 3.5 7.8 0.00 0.00 0.00 87 1009.6
20260831051157 75 233 3.5 7.8 0.00 0.00 0.00 87 1009.7
20260831051102 75 234 3.5 7.8 0.00 0.00 0.00 87 1009.7
20260831051007 75 234 5.2 7.8 0.00 0.00 0.00 87 1009.7
20260831050912 75 250 5.2 7.8 0.00 0.00 0.00 87 1009.6
20260831050801 75 267 4.3 7.8 0.00 0.00 0.00 87 1009.7
20260831050706 75 252 4.3 7.8 0.00 0.00 0.00 87 1009.7
20260831050611 75 259 4.3 7.8 0.00 0.00 0.00 87 1009.7
20260831050456 75 232 3.5 7.8 0.00 0.00 0.00 87 1009.7
20260831050401 75 236 4.3 7.8 0.00 0.00 0.00 87 1009.8
20260831050304 75 250 5.2 7.8 0.00 0.00 0.00 87 1009.7
20260831050233 75 241 4.3 7.8 0.00 0.00 0.00 87 1009.7
20260831050110 75 265 4.3 7.8 0.00 0.00 0.00 87 1009.7
20260831050015 75 231 3.5 7.8 0.00 0.00 0.00 87 1009.7
20260831045859 75 242 3.5 7.8 0.00 0.00 0.00 86 1009.8
20260831045824 75 272 4.3 7.8 0.00 0.00 0.00 86 1009.8
20260831045708 75 268 4.3 7.8 0.00 0.00 0.00 86 1009.8
20260831045613 75 271 4.3 7.8 0.00 0.00 0.00 86 1009.8
20260831045502 75 265 4.3 7.8 0.00 0.00 0.00 86 1009.8
20260831045407 75 254 3.5 7.8 0.00 0.00 0.00 86 1009.9
20260831045312 75 275 3.5 7.8 0.00 0.00 0.00 86 1009.9
20260831045217 75 261 3.5 7.8 0.00 0.00 0.00 86 1009.9
20260831045055 75 290 5.2 7.8 0.00 0.00 0.00 86 1009.9
20260831045000 75 267 5.2 7.8 0.00 0.00 0.00 86 1009.9
20260831044908 75 267 4.3 7.8 0.00 0.00 0.00 86 1009.9
20260831044813 75 249 4.3 7.8 0.00 0.00 0.00 86 1009.9
20260831044658 75 257 4.3 7.0 0.00 0.00 0.00 86 1010.0
20260831044603 75 360 4.3 7.0 0.00 0.00 0.00 86 1009.9
20260831044508 75 222 4.3 7.0 0.00 0.00 0.00 86 1009.9
20260831044357 75 260 4.3 7.8 0.00 0.00 0.00 86 1010.0
20260831044322 75 297 3.5 7.8 0.00 0.00 0.00 86 1009.9
20260831044206 75 254 3.5 7.8 0.00 0.00 0.00 86 1009.9
20260831044111 75 242 4.3 7.8 0.00 0.00 0.00 86 1009.9
20260831043956 75 236 4.3 7.8 0.00 0.00 0.00 86 1010.0
20260831043921 75 281 3.5 7.8 0.00 0.00 0.00 86 1010.0
20260831043824 75 248 3.5 7.8 0.00 0.00 0.00 86 1010.0
20260831043708 75 250 4.3 11.3 0.00 0.00 0.00 86 1010.0
20260831043617 75 253 5.2 11.3 0.00 0.00 0.00 86 1010.0
20260831043455 75 262 3.5 11.3 0.00 0.00 0.00 86 1010.1
20260831043419 76 263 3.5 11.3 0.00 0.00 0.00 86 1010.1
20260831043323 76 261 4.3 11.3 0.00 0.00 0.00 86 1010.1
20260831043206 76 246 5.2 11.3 0.00 0.00 0.00 86 1010.1
20260831043111 76 229 3.5 11.3 0.00 0.00 0.00 86 1010.1
20260831043000 76 260 4.3 11.3 0.00 0.00 0.00 86 1010.0
20260831042925 76 224 7.0 11.3 0.00 0.00 0.00 86 1009.9
20260831042809 76 293 6.1 11.3 0.00 0.00 0.00 86 1009.9
20260831042734 76 296 5.2 9.6 0.00 0.00 0.00 86 1009.9
20260831042558 76 261 6.1 11.3 0.00 0.00 0.00 85 1009.9
20260831042503 76 291 6.1 11.3 0.00 0.00 0.00 85 1009.9
20260831042408 76 252 6.1 11.3 0.00 0.00 0.00 85 1009.9
20260831042257 76 257 4.3 11.3 0.00 0.00 0.00 85 1009.9
20260831042202 76 247 4.3 11.3 0.00 0.00 0.00 85 1010.0
20260831042127 76 240 5.2 11.3 0.00 0.00 0.00 85 1010.0
20260831042011 76 276 5.2 11.3 0.00 0.00 0.00 85 1010.0
20260831041915 76 254 6.1 11.3 0.00 0.00 0.00 85 1010.0
20260831041819 76 296 6.1 11.3 0.00 0.00 0.00 85 1010.0
20260831041702 76 252 6.1 11.3 0.00 0.00 0.00 85 1010.0
20260831041627 76 253 4.3 9.6 0.00 0.00 0.00 85 1010.0
20260831041513 76 255 5.2 9.6 0.00 0.00 0.00 85 1010.0
20260831041358 76 269 5.2 9.6 0.00 0.00 0.00 85 1010.0
20260831041323 76 284 4.3 9.6 0.00 0.00 0.00 85 1009.9
20260831041207 76 261 4.3 9.6 0.00 0.00 0.00 85 1009.9
20260831041112 76 290 6.1 9.6 0.00 0.00 0.00 85 1009.9
20260831041017 76 259 5.2 9.6 0.00 0.00 0.00 85 1009.9
20260831040904 76 268 4.3 10.4 0.00 0.00 0.00 85 1010.0
20260831040809 76 235 4.3 10.4 0.00 0.00 0.00 85 1010.0
20260831040654 76 244 5.2 10.4 0.00 0.00 0.00 85 1010.0
20260831040558 76 252 6.1 10.4 0.00 0.00 0.00 85 1010.0
20260831040523 76 283 5.2 10.4 0.00 0.00 0.00 85 1010.0
20260831040407 76 254 4.3 10.4 0.00 0.00 0.00 85 1010.0
20260831040256 76 265 5.2 10.4 0.00 0.00 0.00 84 1009.9
20260831040201 76 252 5.2 10.4 0.00 0.00 0.00 84 1009.9
20260831040106 76 294 4.3 10.4 0.00 0.00 0.00 84 1009.9
20260831040011 76 255 3.5 10.4 0.00 0.00 0.00 84 1009.9
20260831035855 76 360 5.2 10.4 0.00 0.00 0.00 84 1009.9
20260831035800 76 254 6.1 10.4 0.00 0.00 0.00 84 1009.8
20260831035708 76 236 7.0 10.4 0.00 0.00 0.00 84 1009.8
20260831035613 76 261 7.0 10.4 0.00 0.00 0.00 84 1009.8
20260831035537 76 246 6.1 10.4 0.00 0.00 0.00 84 1009.9
20260831035355 76 245 4.3 10.4 0.00 0.00 0.00 84 1009.9
20260831035300 76 298 4.3 10.4 0.00 0.00 0.00 84 1009.8
20260831035224 76 222 6.1 10.4 0.00 0.00 0.00 84 1009.9
20260831035108 76 271 6.1 10.4 0.00 0.00 0.00 84 1009.8
20260831035016 76 259 6.1 10.4 0.00 0.00 0.00 84 1009.8
20260831034859 76 263 6.1 9.6 0.00 0.00 0.00 84 1009.8
20260831034824 76 270 6.1 11.3 0.00 0.00 0.00 84 1009.8
20260831034707 76 257 7.0 11.3 0.00 0.00 0.00 84 1009.8
20260831034612 76 254 6.1 11.3 0.00 0.00 0.00 84 1009.8
20260831034457 76 281 4.3 11.3 0.00 0.00 0.00 84 1009.9
20260831034402 76 269 5.2 11.3 0.00 0.00 0.00 84 1009.9
20260831034310 76 230 4.3 11.3 0.00 0.00 0.00 84 1009.9
20260831034212 76 280 6.1 11.3 0.00 0.00 0.00 84 1009.9
20260831034056 76 267 7.0 11.3 0.00 0.00 0.00 84 1009.8
20260831034001 76 267 6.1 11.3 0.00 0.00 0.00 83 1009.8
20260831033905 76 273 5.2 9.6 0.00 0.00 0.00 83 1009.8
20260831033810 77 238 6.1 9.6 0.00 0.00 0.00 83 1009.8
20260831033719 77 242 4.3 9.6 0.00 0.00 0.00 83 1009.8
20260831033603 77 251 5.2 9.6 0.00 0.00 0.00 83 1009.9
20260831033508 77 281 4.3 9.6 0.00 0.00 0.00 83 1009.9
20260831033413 77 265 4.3 9.6 0.00 0.00 0.00 83 1009.8
20260831033257 77 235 4.3 7.8 0.00 0.00 0.00 83 1009.8
20260831033202 77 277 4.3 7.8 0.00 0.00 0.00 83 1009.8
20260831033126 77 223 4.3 7.8 0.00 0.00 0.00 83 1009.9
20260831032954 77 251 4.3 7.8 0.00 0.00 0.00 83 1009.9
20260831032859 77 231 4.3 7.8 0.00 0.00 0.00 83 1009.9
20260831032804 77 251 3.5 7.8 0.00 0.00 0.00 82 1010.0
20260831032709 77 265 3.5 8.7 0.00 0.00 0.00 82 1010.0
20260831032554 77 254 4.3 8.7 0.00 0.00 0.00 82 1010.0
20260831032459 77 259 4.3 8.7 0.00 0.00 0.00 82 1009.9
20260831032407 77 276 4.3 8.7 0.00 0.00 0.00 82 1009.9
20260831032312 77 252 4.3 8.7 0.00 0.00 0.00 82 1009.9
20260831032217 77 253 3.5 8.7 0.00 0.00 0.00 82 1009.8
20260831032055 77 242 3.5 8.7 0.00 0.00 0.00 82 1009.8
20260831032020 77 240 4.3 8.7 0.00 0.00 0.00 82 1009.8
20260831031904 77 270 5.2 8.7 0.00 0.00 0.00 82 1009.8
20260831031813 77 244 5.2 8.7 0.00 0.00 0.00 82 1009.8
20260831031658 77 247 6.1 9.6 0.00 0.00 0.00 82 1009.7
20260831031622 77 245 6.1 9.6 0.00 0.00 0.00 82 1009.7
20260831031506 77 273 4.3 10.4 0.00 0.00 0.00 82 1009.7
20260831031431 77 273 4.3 10.4 0.00 0.00 0.00 82 1009.7
20260831031315 77 244 3.5 10.4 0.00 0.00 0.00 82 1009.7
20260831031218 77 228 5.2 10.4 0.00 0.00 0.00 81 1009.7
20260831031122 77 261 6.1 10.4 0.00 0.00 0.00 81 1009.8
20260831031010 77 267 5.2 10.4 0.00 0.00 0.00 81 1009.8
20260831030854 77 261 4.3 10.4 0.00 0.00 0.00 81 1009.7
20260831030819 77 252 5.2 10.4 0.00 0.00 0.00 81 1009.7
20260831030657 77 256 6.1 11.3 0.00 0.00 0.00 81 1009.7
20260831030602 77 236 5.2 11.3 0.00 0.00 0.00 81 1009.7
20260831030507 77 247 4.3 11.3 0.00 0.00 0.00 81 1009.6
20260831030416 77 268 5.2 11.3 0.00 0.00 0.00 81 1009.6
20260831030300 77 259 5.2 11.3 0.00 0.00 0.00 81 1009.6
20260831030205 77 228 4.3 11.3 0.00 0.00 0.00 81 1009.6
20260831030110 77 227 4.3 11.3 0.00 0.00 0.00 81 1009.6
20260831030015 78 232 5.2 11.3 0.00 0.00 0.00 81 1009.6
20260831025940 78 254 6.1 11.3 0.00 0.00 0.00 81 1009.5
20260831025756 78 259 5.2 8.7 0.00 0.00 0.00 81 1009.4
20260831025725 78 292 5.2 7.8 0.00 0.00 0.00 80 1009.5
20260831025609 78 236 4.3 7.8 0.00 0.00 0.00 80 1009.5
20260831025454 78 244 3.5 7.8 0.00 0.00 0.00 80 1009.5
20260831025359 78 241 4.3 10.4 0.00 0.00 0.00 80 1009.5
20260831025306 78 242 4.3 11.3 0.00 0.00 0.00 80 1009.4
20260831025229 78 225 5.2 11.3 0.00 0.00 0.00 80 1009.4
20260831025057 78 227 6.1 11.3 0.00 0.00 0.00 80 1009.5
20260831025002 78 215 6.1 12.2 0.00 0.00 0.00 79 1009.5
20260831024907 78 251 5.2 12.2 0.00 0.00 0.00 79 1009.5
20260831024812 78 236 5.2 12.2 0.00 0.00 0.00 79 1009.5
20260831024656 78 264 7.8 12.2 0.00 0.00 0.00 79 1009.5
20260831024600 78 254 8.7 12.2 0.00 0.00 0.00 79 1009.6
20260831024524 78 285 7.8 12.2 0.00 0.00 0.00 79 1009.6
20260831024412 78 248 7.0 12.2 0.00 0.00 0.00 79 1009.6
20260831024317 78 232 7.0 12.2 0.00 0.00 0.00 79 1009.6
20260831024155 78 237 7.8 12.2 0.00 0.00 0.00 79 1009.6
20260831024100 78 251 7.0 12.2 0.00 0.00 0.00 78 1009.6
20260831024005 78 250 6.1 11.3 0.00 0.00 0.00 78 1009.6
20260831023909 78 234 5.2 11.3 0.00 0.00 0.00 78 1009.6
20260831023758 78 250 5.2 11.3 0.00 0.00 0.00 78 1009.7
20260831023703 78 255 6.1 13.0 0.00 0.00 0.00 78 1009.7
20260831023607 79 217 6.1 13.0 0.00 0.00 0.00 78 1009.7
20260831023532 79 216 5.2 13.0 0.00 0.00 0.00 78 1009.7
20260831023355 79 237 7.0 13.0 0.00 0.00 0.00 77 1009.7
20260831023300 79 253 7.8 13.0 0.00 0.00 0.00 77 1009.7
20260831023209 79 242 7.0 13.0 0.00 0.00 0.00 77 1009.7
20260831023054 79 232 7.0 13.0 0.00 0.00 0.00 77 1009.7
20260831022959 79 222 7.8 13.0 0.00 0.00 0.00 77 1009.7
20260831022924 79 284 7.8 13.0 0.00 0.00 0.00 77 1009.7
20260831022807 79 225 7.0 11.3 0.00 0.00 0.00 77 1009.7
20260831022712 79 259 5.2 11.3 0.00 0.00 0.00 76 1009.7
20260831022601 79 252 6.1 11.3 0.00 0.00 0.00 76 1009.7
20260831022506 79 231 7.0 11.3 0.00 0.00 0.00 76 1009.7
20260831022411 79 245 7.8 11.3 0.00 0.00 0.00 76 1009.7
20260831022256 79 265 7.0 11.3 0.00 0.00 0.00 76 1009.7
20260831022200 79 247 5.2 11.3 0.00 0.00 0.00 76 1009.7
20260831022104 79 224 5.2 11.3 0.00 0.00 0.00 76 1009.6
20260831022029 79 242 6.1 11.3 0.00 0.00 0.00 76 1009.6
20260831021857 79 238 5.2 12.2 0.00 0.00 0.00 75 1009.7
20260831021801 80 224 5.2 12.2 0.00 0.00 0.00 75 1009.7
20260831021726 80 268 6.1 12.2 0.00 0.00 0.00 75 1009.6
20260831021610 80 228 6.1 12.2 0.00 0.00 0.00 75 1009.6
20260831021515 80 274 5.2 12.2 0.00 0.00 0.00 75 1009.6
20260831021359 80 289 6.1 12.2 0.00 0.00 0.00 75 1009.6
20260831021308 80 263 7.0 12.2 0.00 0.00 0.00 75 1009.6
20260831021213 80 233 7.0 12.2 0.00 0.00 0.00 75 1009.5
20260831021117 80 220 7.0 12.2 0.00 0.00 0.00 75 1009.5
20260831020955 80 261 5.2 12.2 0.00 0.00 0.00 75 1009.5
20260831020859 80 267 6.1 13.0 0.00 0.00 0.00 75 1009.6
20260831020824 80 265 7.0 13.0 0.00 0.00 0.00 74 1009.5
20260831020708 80 257 6.1 13.0 0.00 0.00 0.00 74 1009.5
20260831020617 80 236 5.2 13.0 0.00 0.00 0.00 74 1009.4
20260831020455 80 225 7.0 13.0 0.00 0.00 0.00 74 1009.5
20260831020400 80 289 7.0 13.0 0.00 0.00 0.00 74 1009.5
20260831020324 80 241 7.0 13.0 0.00 0.00 0.00 74 1009.4
20260831020208 80 265 7.8 13.0 0.00 0.00 0.00 74 1009.4
20260831020112 80 252 7.0 13.0 0.00 0.00 0.00 74 1009.5
20260831020001 80 258 7.0 13.0 0.00 0.00 0.00 74 1009.6
20260831015906 80 238 7.8 13.0 0.00 0.00 0.00 74 1009.5
20260831015811 81 273 7.8 13.9 0.00 0.00 0.00 74 1009.5
20260831015715 81 260 8.7 13.9 0.00 0.00 0.00 74 1009.6
20260831015640 81 257 8.7 13.9 0.00 0.00 0.00 74 1009.7
20260831015457 81 269 8.7 13.9 0.00 0.00 0.00 73 1009.6
20260831015402 81 225 7.8 13.9 0.00 0.00 0.00 74 1009.6
20260831015311 81 250 7.8 13.9 0.00 0.00 0.00 73 1009.6
20260831015216 81 266 7.8 13.9 0.00 0.00 0.00 74 1009.8
20260831015100 81 232 7.8 13.9 0.00 0.00 0.00 74 1009.7
20260831015004 81 236 7.8 18.2 0.00 0.00 0.00 74 1009.8
20260831014909 81 283 8.7 18.2 0.00 0.00 0.00 74 1009.8
20260831014754 81 254 8.7 18.2 0.00 0.00 0.00 74 1009.6
20260831014703 81 238 8.7 18.2 0.00 0.00 0.00 74 1009.7
20260831014608 81 255 9.6 18.2 0.00 0.00 0.00 75 1009.7
20260831014533 81 243 8.7 18.2 0.00 0.00 0.00 75 1009.6
20260831014357 81 274 9.6 18.2 0.00 0.00 0.00 76 1009.5
20260831014302 81 235 11.3 18.2 0.00 0.00 0.00 76 1009.5
20260831014228 80 227 10.4 18.2 0.00 0.00 0.00 77 1009.6
20260831014132 80 259 9.6 15.6 0.00 0.00 0.00 78 1009.6
20260831014019 80 243 9.6 15.6 0.00 0.00 0.00 79 1009.6
20260831013857 80 231 8.7 12.2 0.00 0.00 0.00 80 1009.5
20260831013802 80 256 7.0 8.7 0.00 0.00 0.00 81 1009.5
20260831013707 80 244 7.0 9.6 0.00 0.00 0.00 82 1009.5
20260831013611 80 243 6.1 8.7 0.00 0.00 0.00 82 1009.5
20260831013456 80 236 4.3 7.8 0.00 0.00 0.00 83 1009.5
20260831013425 80 221 4.3 8.7 0.00 0.00 0.00 83 1009.5
20260831013309 80 248 5.2 8.7 0.00 0.00 0.00 83 1009.5
20260831013154 80 206 5.2 8.7 0.00 0.00 0.00 83 1009.4
20260831013058 80 221 4.3 8.7 0.00 0.00 0.00 83 1009.4
20260831013003 80 217 3.5 8.7 0.00 0.00 0.00 83 1009.4
20260831012927 80 216 4.3 8.7 0.00 0.00 0.00 83 1009.4
20260831012754 80 211 5.2 8.7 0.00 0.00 0.00 83 1009.2
20260831012659 80 215 6.1 8.7 0.00 0.00 0.00 83 1009.2
20260831012624 80 226 6.1 8.7 0.00 0.00 0.00 83 1009.2
20260831012508 80 234 5.2 8.7 0.00 0.00 0.00 83 1009.2
20260831012433 80 212 5.2 8.7 0.00 0.00 0.00 83 1009.1
20260831012256 80 192 5.2 9.6 0.00 0.00 0.00 83 1009.1
20260831012201 80 225 5.2 9.6 0.00 0.00 0.00 83 1009.0
20260831012126 80 209 5.2 9.6 0.00 0.00 0.00 83 1009.1
20260831011954 80 226 6.1 9.6 0.00 0.00 0.00 83 1009.1
20260831011919 80 220 6.1 9.6 0.00 0.00 0.00 83 1009.2
20260831011803 80 221 6.1 9.6 0.00 0.00 0.00 82 1009.1
20260831011708 80 231 6.1 9.6 0.00 0.00 0.00 82 1009.1
20260831011633 80 201 6.1 9.6 0.00 0.00 0.00 82 1009.1
20260831011517 80 209 6.1 9.6 0.00 0.00 0.00 82 1009.1
20260831011357 80 207 6.1 8.7 0.00 0.00 0.00 82 1009.1
20260831011306 80 213 6.1 8.7 0.00 0.00 0.00 82 1009.1
20260831011211 80 235 6.1 8.7 0.00 0.00 0.00 82 1009.1
20260831011055 80 221 6.1 8.7 0.00 0.00 0.00 82 1009.1
20260831011000 80 225 6.1 8.7 0.00 0.00 0.00 82 1009.1
20260831010904 80 213 6.1 8.7 0.00 0.00 0.00 82 1009.1
20260831010807 80 203 5.2 8.7 0.00 0.00 0.00 82 1009.1
20260831010656 81 219 4.3 8.7 0.00 0.00 0.00 82 1009.1
20260831010621 81 231 5.2 8.7 0.00 0.00 0.00 82 1009.1
20260831010523 81 208 5.2 8.7 0.00 0.00 0.00 82 1009.1
20260831010405 81 223 5.2 8.7 0.00 0.00 0.00 82 1009.1
20260831010310 81 200 6.1 8.7 0.00 0.00 0.00 82 1009.1
20260831010155 81 216 6.1 9.6 0.00 0.00 0.00 82 1009.1
20260831010100 81 211 6.1 8.7 0.00 0.00 0.00 82 1009.1
20260831010009 81 214 5.2 8.7 0.00 0.00 0.00 82 1009.1
20260831005934 81 215 5.2 8.7 0.00 0.00 0.00 82 1009.0
20260831005758 81 191 5.2 8.7 0.00 0.00 0.00 82 1009.0
20260831005703 81 192 4.3 8.7 0.00 0.00 0.00 82 1009.0
20260831005608 81 180 5.2 8.7 0.00 0.00 0.00 82 1009.0
20260831005512 81 174 6.1 8.7 0.00 0.00 0.00 82 1009.0
20260831005401 81 175 6.1 9.6 0.00 0.00 0.00 82 1008.9
20260831005327 81 195 5.2 9.6 0.00 0.00 0.00 82 1008.8
20260831005231 81 169 6.1 9.6 0.00 0.00 0.00 82 1008.8
20260831005134 81 173 7.0 9.6 0.00 0.00 0.00 81 1008.9
20260831004958 81 173 7.0 9.6 0.00 0.00 0.00 81 1008.8
20260831004903 81 171 7.0 9.6 0.00 0.00 0.00 81 1008.8
20260831004808 81 194 7.0 9.6 0.00 0.00 0.00 81 1008.8
20260831004733 81 157 7.0 9.6 0.00 0.00 0.00 81 1008.8
20260831004600 81 198 7.0 9.6 0.00 0.00 0.00 81 1008.8
20260831004505 81 175 6.1 9.6 0.00 0.00 0.00 81 1008.9
20260831004410 81 186 6.1 9.6 0.00 0.00 0.00 81 1008.9
20260831004255 81 188 6.1 8.7 0.00 0.00 0.00 81 1008.9
20260831004200 81 201 5.2 8.7 0.00 0.00 0.00 81 1008.9
20260831004105 81 182 4.3 8.7 0.00 0.00 0.00 81 1009.0
20260831003954 81 194 3.5 8.7 0.00 0.00 0.00 81 1009.0
20260831003859 81 190 5.2 8.7 0.00 0.00 0.00 80 1009.0
20260831003804 81 183 5.2 8.7 0.00 0.00 0.00 80 1009.1
20260831003709 81 190 6.1 8.7 0.00 0.00 0.00 80 1009.1
20260831003613 82 203 6.1 8.7 0.00 0.00 0.00 80 1009.1
20260831003517 82 190 6.1 8.7 0.00 0.00 0.00 80 1009.1
20260831003405 82 188 5.2 8.7 0.00 0.00 0.00 80 1009.1
20260831003310 82 197 6.1 8.7 0.00 0.00 0.00 80 1009.1
20260831003215 82 207 7.0 8.7 0.00 0.00 0.00 80 1009.2
20260831003059 82 187 7.0 11.3 0.00 0.00 0.00 80 1009.1
20260831003023 82 202 6.1 11.3 0.00 0.00 0.00 80 1009.1
20260831002927 82 196 5.2 11.3 0.00 0.00 0.00 80 1009.1
20260831002811 82 206 4.3 11.3 0.00 0.00 0.00 80 1009.1
20260831002700 82 191 5.2 11.3 0.00 0.00 0.00 80 1009.0
20260831002605 82 199 6.1 11.3 0.00 0.00 0.00 79 1009.1
20260831002510 82 197 7.0 11.3 0.00 0.00 0.00 79 1009.1
20260831002355 82 203 7.8 11.3 0.00 0.00 0.00 79 1008.9
20260831002259 82 197 7.8 11.3 0.00 0.00 0.00 79 1008.9
20260831002224 82 207 7.0 10.4 0.00 0.00 0.00 79 1008.9
20260831002112 82 202 7.0 12.2 0.00 0.00 0.00 79 1008.9
20260831002018 82 197 7.0 12.2 0.00 0.00 0.00 79 1008.9
20260831001855 82 197 7.0 12.2 0.00 0.00 0.00 79 1008.9
20260831001800 82 207 7.0 13.0 0.00 0.00 0.00 79 1009.0
20260831001705 82 190 5.2 12.2 0.00 0.00 0.00 79 1009.0
20260831001630 82 194 4.3 12.2 0.00 0.00 0.00 79 1009.0
20260831001458 83 205 5.2 12.2 0.00 0.00 0.00 78 1008.9
20260831001403 83 219 6.1 12.2 0.00 0.00 0.00 78 1009.0
20260831001328 83 220 6.1 12.2 0.00 0.00 0.00 78 1009.0
20260831001212 83 215 6.1 12.2 0.00 0.00 0.00 78 1008.8
20260831001057 83 198 7.8 12.2 0.00 0.00 0.00 78 1008.8
20260831001002 83 223 7.8 12.2 0.00 0.00 0.00 78 1008.9
20260831000907 83 196 7.0 11.3 0.00 0.00 0.00 78 1008.9
20260831000756 83 202 7.0 11.3 0.00 0.00 0.00 78 1008.9
20260831000700 83 197 7.0 11.3 0.00 0.00 0.00 78 1008.9
20260831000605 83 210 7.0 11.3 0.00 0.00 0.00 78 1008.8
20260831000510 83 186 7.0 11.3 0.00 0.00 0.00 78 1008.8
20260831000355 83 219 7.8 10.4 0.00 0.00 0.00 78 1008.8
20260831000300 83 204 7.0 10.4 0.00 0.00 0.00 78 1008.8
20260831000211 83 201 7.0 10.4 0.00 0.00 0.00 78 1008.8
20260831000133 83 177 6.1 10.4 0.00 0.00 0.00 78 1008.8
20260831000037 83 192 6.1 10.4 0.00 0.00 0.00 78 1008.7
20260830235854 83 204 6.1 10.4 0.00 0.00 0.00 78 1008.8
20260830235704 83 138 5.2 10.4 0.00 0.00 0.00 78 1008.8
20260830235609 83 184 5.2 7.8 0.00 0.00 0.00 78 1008.8
20260830235518 83 186 6.1 7.8 0.00 0.00 0.00 78 1008.8
20260830235356 83 182 6.1 7.8 0.00 0.00 0.00 78 1008.8
20260830235321 83 188 5.2 7.8 0.00 0.00 0.00 78 1008.8
20260830235205 83 204 5.2 6.1 0.00 0.00 0.00 78 1008.9
20260830235110 83 182 4.3 6.1 0.00 0.00 0.00 78 1008.9
20260830235034 84 185 4.3 7.0 0.00 0.00 0.00 78 1008.9
20260830234902 84 178 4.3 7.0 0.00 0.00 0.00 78 1009.0
20260830234807 84 182 4.3 8.7 0.00 0.00 0.00 77 1009.0
20260830234712 84 187 3.5 8.7 0.00 0.00 0.00 77 1009.0
20260830234557 84 163 3.5 8.7 0.00 0.00 0.00 77 1008.9
20260830234502 84 173 5.2 8.7 0.00 0.00 0.00 77 1009.0
20260830234406 84 171 5.2 9.6 0.00 0.00 0.00 77 1009.0
20260830234315 84 188 5.2 9.6 0.00 0.00 0.00 77 1008.9
20260830234219 84 198 5.2 9.6 0.00 0.00 0.00 77 1009.0
20260830234123 84 190 6.1 9.6 0.00 0.00 0.00 77 1009.1
20260830234007 84 189 6.1 9.6 0.00 0.00 0.00 77 1009.1
20260830233911 84 196 6.1 9.6 0.00 0.00 0.00 77 1009.0
20260830233816 84 192 5.2 9.6 0.00 0.00 0.00 77 1009.1
20260830233721 84 194 6.1 9.6 0.00 0.00 0.00 77 1009.1
20260830233558 83 233 6.1 9.6 0.00 0.00 0.00 77 1009.1
20260830233507 83 208 5.2 9.6 0.00 0.00 0.00 77 1009.1
20260830233412 83 202 4.3 8.7 0.00 0.00 0.00 77 1009.0
20260830233317 83 197 5.2 8.7 0.00 0.00 0.00 77 1009.0
20260830233201 83 208 6.1 8.7 0.00 0.00 0.00 77 1008.9
20260830233126 83 196 6.1 8.7 0.00 0.00 0.00 78 1008.9
20260830233010 83 231 7.0 8.7 0.00 0.00 0.00 77 1008.9
20260830232858 83 161 7.0 8.7 0.00 0.00 0.00 77 1008.9
20260830232803 83 198 7.0 8.7 0.00 0.00 0.00 77 1008.9
20260830232708 83 179 7.0 9.6 0.00 0.00 0.00 77 1008.9
20260830232613 83 191 6.1 10.4 0.00 0.00 0.00 78 1008.9
20260830232518 83 196 6.1 10.4 0.00 0.00 0.00 77 1008.9
20260830232356 83 193 6.1 10.4 0.00 0.00 0.00 77 1008.9
20260830232306 83 202 7.0 10.4 0.00 0.00 0.00 77 1008.9
20260830232210 83 176 7.0 10.4 0.00 0.00 0.00 77 1008.9
20260830232055 83 206 5.2 10.4 0.00 0.00 0.00 77 1008.9
20260830232020 83 172 6.1 10.4 0.00 0.00 0.00 77 1008.8
20260830231904 83 186 7.0 10.4 0.00 0.00 0.00 77 1008.9
20260830231808 83 180 7.0 10.4 0.00 0.00 0.00 77 1008.9
20260830231657 84 191 5.2 8.7 0.00 0.00 0.00 78 1008.9
20260830231602 83 173 5.2 7.0 0.00 0.00 0.00 78 1009.0
20260830231507 83 190 5.2 7.0 0.00 0.00 0.00 78 1009.0
20260830231411 83 190 4.3 7.0 0.00 0.00 0.00 77 1009.1
20260830231316 83 194 4.3 8.7 0.00 0.00 0.00 78 1009.1
20260830231154 83 186 4.3 8.7 0.00 0.00 0.00 77 1009.2
20260830231103 83 209 4.3 8.7 0.00 0.00 0.00 78 1009.2
20260830231028 83 199 4.3 8.7 0.00 0.00 0.00 77 1009.2
20260830230912 83 194 4.3 8.7 0.00 0.00 0.00 77 1009.3
20260830230818 84 193 4.3 8.7 0.00 0.00 0.00 77 1009.2
20260830230656 84 188 4.3 8.7 0.00 0.00 0.00 77 1009.2
20260830230601 84 186 5.2 8.7 0.00 0.00 0.00 76 1009.2
20260830230521 84 193 6.1 9.6 0.00 0.00 0.00 76 1009.1
20260830230409 84 199 6.1 9.6 0.00 0.00 0.00 76 1009.1
20260830230254 84 187 5.2 12.2 0.00 0.00 0.00 76 1009.1
20260830230158 84 184 5.2 12.2 0.00 0.00 0.00 76 1009.1
20260830230007 84 198 5.2 12.2 0.00 0.00 0.00 75 1009.0
20260830225912 84 180 4.3 12.2 0.00 0.00 0.00 76 1008.9
20260830225821 84 180 5.2 12.2 0.00 0.00 0.00 76 1008.9
20260830225704 84 187 6.1 12.2 0.00 0.00 0.00 75 1009.0
20260830225609 84 186 7.0 12.2 0.00 0.00 0.00 76 1009.0
20260830225454 84 205 7.0 12.2 0.00 0.00 0.00 75 1008.9
20260830225359 84 188 6.1 10.4 0.00 0.00 0.00 76 1009.0
20260830225305 84 204 5.2 10.4 0.00 0.00 0.00 75 1008.9
20260830225212 84 198 5.2 10.4 0.00 0.00 0.00 76 1008.9
20260830225056 84 186 7.0 10.4 0.00 0.00 0.00 76 1008.9
20260830225021 84 191 7.8 11.3 0.00 0.00 0.00 76 1009.0
20260830224905 84 184 7.8 11.3 0.00 0.00 0.00 76 1009.0
20260830224810 84 189 7.8 11.3 0.00 0.00 0.00 76 1009.0
20260830224715 84 200 7.0 11.3 0.00 0.00 0.00 75 1008.9
20260830224558 84 196 6.1 11.3 0.00 0.00 0.00 75 1008.9
20260830224523 84 194 7.0 11.3 0.00 0.00 0.00 75 1008.9
20260830224411 84 179 7.0 11.3 0.00 0.00 0.00 75 1008.9
20260830224316 84 189 7.0 11.3 0.00 0.00 0.00 75 1009.1
20260830224241 84 198 6.1 11.3 0.00 0.00 0.00 75 1009.1
20260830224058 84 143 7.0 11.3 0.00 0.00 0.00 75 1008.9
20260830224023 84 196 7.0 11.3 0.00 0.00 0.00 74 1009.0
20260830223907 85 194 7.0 11.3 0.00 0.00 0.00 75 1009.0
20260830223832 85 198 7.0 11.3 0.00 0.00 0.00 75 1008.9
20260830223659 85 208 8.7 11.3 0.00 0.00 0.00 75 1008.9
20260830223603 85 192 7.8 11.3 0.00 0.00 0.00 75 1008.9
20260830223508 85 190 7.0 11.3 0.00 0.00 0.00 75 1008.9
20260830223433 85 190 5.2 10.4 0.00 0.00 0.00 76 1008.9
20260830223316 85 200 5.2 10.4 0.00 0.00 0.00 76 1008.9
20260830223154 84 171 7.0 10.4 0.00 0.00 0.00 75 1009.0
20260830223103 85 198 7.0 10.4 0.00 0.00 0.00 75 1008.9
20260830223008 85 171 6.1 10.4 0.00 0.00 0.00 75 1008.9
20260830222912 85 188 5.2 11.3 0.00 0.00 0.00 76 1009.0
20260830222757 84 151 5.2 11.3 0.00 0.00 0.00 76 1008.9
20260830222702 84 198 5.2 11.3 0.00 0.00 0.00 76 1008.9
20260830222626 84 177 6.1 11.3 0.00 0.00 0.00 76 1008.9
20260830222510 84 191 7.0 11.3 0.00 0.00 0.00 76 1008.9
20260830222439 84 166 7.0 11.3 0.00 0.00 0.00 76 1008.9
20260830222256 84 222 8.7 11.3 0.00 0.00 0.00 76 1008.8
20260830222201 84 186 8.7 11.3 0.00 0.00 0.00 76 1008.9
20260830222106 84 184 7.0 11.3 0.00 0.00 0.00 75 1008.9
20260830222010 84 193 5.2 10.4 0.00 0.00 0.00 76 1008.9
20260830221855 84 184 5.2 10.4 0.00 0.00 0.00 77 1008.9
20260830221803 84 180 7.0 10.4 0.00 0.00 0.00 76 1008.9
20260830221707 84 184 7.0 11.3 0.00 0.00 0.00 77 1008.9
20260830221612 84 189 6.1 9.6 0.00 0.00 0.00 77 1009.0
20260830221457 84 180 7.0 9.6 0.00 0.00 0.00 77 1009.0
20260830221402 83 186 6.1 9.6 0.00 0.00 0.00 77 1009.0
20260830221307 83 194 6.1 9.6 0.00 0.00 0.00 78 1009.0
20260830221216 83 165 6.1 9.6 0.00 0.00 0.00 78 1009.1
20260830221141 83 169 7.0 9.6 0.00 0.00 0.00 77 1009.1
20260830220958 83 216 6.1 9.6 0.00 0.00 0.00 77 1009.1
20260830220923 83 193 6.1 9.6 0.00 0.00 0.00 77 1009.1
20260830220807 83 180 7.0 9.6 0.00 0.00 0.00 78 1009.1
20260830220712 83 193 7.0 10.4 0.00 0.00 0.00 77 1009.1
20260830220600 83 196 6.1 10.4 0.00 0.00 0.00 77 1009.2
20260830220505 83 217 6.1 10.4 0.00 0.00 0.00 77 1009.1
20260830220410 83 194 6.1 10.4 0.00 0.00 0.00 77 1009.1
20260830220255 83 168 7.0 10.4 0.00 0.00 0.00 76 1009.2
20260830220200 83 182 7.0 10.4 0.00 0.00 0.00 77 1009.1
20260830220105 83 198 7.8 10.4 0.00 0.00 0.00 76 1009.2
20260830215954 83 188 7.8 10.4 0.00 0.00 0.00 76 1009.2
20260830215858 83 191 7.0 10.4 0.00 0.00 0.00 76 1009.2
20260830215803 83 182 7.0 10.4 0.00 0.00 0.00 76 1009.2
20260830215707 83 194 6.1 10.4 0.00 0.00 0.00 76 1009.2
20260830215632 83 211 5.2 10.4 0.00 0.00 0.00 76 1009.2
20260830215515 83 169 6.1 11.3 0.00 0.00 0.00 76 1009.3
20260830215359 83 202 7.0 11.3 0.00 0.00 0.00 76 1009.3
20260830215307 83 205 7.0 11.3 0.00 0.00 0.00 76 1009.3
20260830215232 83 192 7.8 11.3 0.00 0.00 0.00 77 1009.3
20260830215116 83 192 7.8 11.3 0.00 0.00 0.00 76 1009.3
20260830214954 83 188 8.7 11.3 0.00 0.00 0.00 77 1009.3
20260830214919 83 194 7.8 11.3 0.00 0.00 0.00 77 1009.2
20260830214803 83 194 7.8 11.3 0.00 0.00 0.00 76 1009.3
20260830214708 83 189 7.8 11.3 0.00 0.00 0.00 77 1009.3
20260830214557 83 200 7.8 11.3 0.00 0.00 0.00 76 1009.4
20260830214502 83 203 7.0 11.3 0.00 0.00 0.00 76 1009.4
20260830214406 83 180 7.8 11.3 0.00 0.00 0.00 76 1009.4
20260830214331 83 202 7.8 11.3 0.00 0.00 0.00 76 1009.4
20260830214215 83 163 7.8 11.3 0.00 0.00 0.00 77 1009.4
20260830214120 83 192 7.8 11.3 0.00 0.00 0.00 76 1009.4
20260830213958 83 219 7.8 11.3 0.00 0.00 0.00 76 1009.5
20260830213923 83 189 6.1 10.4 0.00 0.00 0.00 76 1009.5
20260830213811 83 188 4.3 9.6 0.00 0.00 0.00 76 1009.5
20260830213737 83 205 4.3 9.6 0.00 0.00 0.00 76 1009.6
20260830213554 83 200 6.1 9.6 0.00 0.00 0.00 76 1009.5
20260830213519 83 189 7.8 9.6 0.00 0.00 0.00 76 1009.6
20260830213402 84 203 7.8 11.3 0.00 0.00 0.00 76 1009.6
20260830213326 84 194 7.8 11.3 0.00 0.00 0.00 76 1009.6
20260830213230 84 205 7.8 11.3 0.00 0.00 0.00 76 1009.6
20260830213057 84 209 7.0 12.2 0.00 0.00 0.00 76 1009.6
20260830213002 84 227 6.1 12.2 0.00 0.00 0.00 76 1009.6
20260830212927 83 196 6.1 12.2 0.00 0.00 0.00 76 1009.6
20260830212810 83 202 7.0 12.2 0.00 0.00 0.00 76 1009.6
20260830212716 83 167 7.8 12.2 0.00 0.00 0.00 76 1009.6
20260830212554 83 180 7.0 12.2 0.00 0.00 0.00 76 1009.6
20260830212458 83 205 7.0 12.2 0.00 0.00 0.00 77 1009.5
20260830212407 83 229 7.0 12.2 0.00 0.00 0.00 76 1009.5
20260830212312 83 191 7.0 12.2 0.00 0.00 0.00 77 1009.6
20260830212218 83 180 7.0 12.2 0.00 0.00 0.00 76 1009.6
20260830212056 83 238 7.8 12.2 0.00 0.00 0.00 76 1009.6
20260830212001 83 204 7.0 12.2 0.00 0.00 0.00 77 1009.7
20260830211906 83 215 6.1 11.3 0.00 0.00 0.00 77 1009.7
20260830211816 83 193 5.2 11.3 0.00 0.00 0.00 77 1009.7
20260830211654 83 218 5.2 11.3 0.00 0.00 0.00 77 1009.6
20260830211558 83 203 5.2 11.3 0.00 0.00 0.00 78 1009.7
20260830211504 83 229 7.0 12.2 0.00 0.00 0.00 77 1009.7
20260830211408 83 222 7.8 12.2 0.00 0.00 0.00 77 1009.7
20260830211257 83 216 7.0 12.2 0.00 0.00 0.00 76 1009.7
20260830211202 83 211 6.1 12.2 0.00 0.00 0.00 77 1009.7
20260830211107 83 213 7.0 12.2 0.00 0.00 0.00 77 1009.7
20260830211012 83 202 7.8 12.2 0.00 0.00 0.00 76 1009.7
20260830210857 83 222 9.6 12.2 0.00 0.00 0.00 75 1009.6
20260830210822 83 207 8.7 12.2 0.00 0.00 0.00 76 1009.7
20260830210705 83 198 7.8 12.2 0.00 0.00 0.00 77 1009.7
20260830210554 83 225 7.8 11.3 0.00 0.00 0.00 76 1009.6
20260830210459 83 209 8.7 11.3 0.00 0.00 0.00 76 1009.7
20260830210404 83 204 8.7 12.2 0.00 0.00 0.00 77 1009.7
20260830210308 83 190 8.7 12.2 0.00 0.00 0.00 77 1009.7
20260830210213 83 207 8.7 12.2 0.00 0.00 0.00 77 1009.6
20260830210118 83 172 7.0 12.2 0.00 0.00 0.00 77 1009.6
20260830210026 83 174 7.8 12.2 0.00 0.00 0.00 78 1009.7
20260830205909 83 196 8.7 12.2 0.00 0.00 0.00 77 1009.7
20260830205813 83 205 8.7 12.2 0.00 0.00 0.00 77 1009.6
20260830205718 82 202 8.7 14.8 0.00 0.00 0.00 78 1009.6
20260830205602 82 224 8.7 14.8 0.00 0.00 0.00 78 1009.7
20260830205507 82 184 8.7 14.8 0.00 0.00 0.00 77 1009.7
20260830205412 82 208 9.6 14.8 0.00 0.00 0.00 77 1009.7
20260830205320 82 216 9.6 14.8 0.00 0.00 0.00 77 1009.8
20260830205203 82 213 9.6 14.8 0.00 0.00 0.00 77 1009.8
20260830205108 82 219 9.6 14.8 0.00 0.00 0.00 77 1009.8
20260830205033 82 236 10.4 14.8 0.00 0.00 0.00 77 1009.7
20260830204857 82 239 8.7 13.9 0.00 0.00 0.00 79 1009.7
20260830204801 82 242 7.0 11.3 0.00 0.00 0.00 79 1009.8
20260830204726 82 218 6.1 9.6 0.00 0.00 0.00 79 1009.7
20260830204554 82 207 7.0 9.6 0.00 0.00 0.00 79 1009.8
20260830204519 82 187 7.0 10.4 0.00 0.00 0.00 80 1009.8
20260830204403 82 186 6.1 10.4 0.00 0.00 0.00 79 1009.8
20260830204308 82 175 5.2 10.4 0.00 0.00 0.00 80 1009.8
20260830204212 82 184 5.2 10.4 0.00 0.00 0.00 79 1009.9
20260830204057 82 150 5.2 10.4 0.00 0.00 0.00 80 1009.8
20260830204006 81 215 6.1 10.4 0.00 0.00 0.00 79 1009.9
20260830203911 81 209 7.0 13.0 0.00 0.00 0.00 80 1009.9
20260830203816 81 194 7.0 13.0 0.00 0.00 0.00 80 1009.9
20260830203654 81 190 7.0 13.0 0.00 0.00 0.00 80 1009.9
20260830203559 81 209 6.1 13.0 0.00 0.00 0.00 79 1009.9
20260830203504 81 192 6.1 13.0 0.00 0.00 0.00 80 1009.9
20260830203413 81 194 7.0 13.0 0.00 0.00 0.00 80 1009.9
20260830203318 81 163 7.0 13.0 0.00 0.00 0.00 79 1009.9
20260830203156 81 181 7.0 12.2 0.00 0.00 0.00 79 1010.0
20260830203101 81 216 7.0 12.2 0.00 0.00 0.00 79 1009.9
20260830203005 81 159 7.0 10.4 0.00 0.00 0.00 79 1009.9
20260830202910 81 169 7.0 12.2 0.00 0.00 0.00 80 1009.9
20260830202759 81 139 7.0 12.2 0.00 0.00 0.00 79 1009.8
20260830202703 81 195 7.8 12.2 0.00 0.00 0.00 80 1009.8
20260830202608 81 200 7.8 12.2 0.00 0.00 0.00 80 1009.8
20260830202533 81 191 7.0 12.2 0.00 0.00 0.00 80 1009.8
20260830202356 81 211 7.0 12.2 0.00 0.00 0.00 80 1009.8
20260830202301 81 173 7.8 12.2 0.00 0.00 0.00 80 1009.7
20260830202226 81 152 6.1 12.2 0.00 0.00 0.00 80 1009.7
20260830202054 81 171 4.3 8.7 0.00 0.00 0.00 82 1009.7
20260830202018 81 180 5.2 8.7 0.00 0.00 0.00 82 1009.7
20260830201856 81 173 6.1 9.6 0.00 0.00 0.00 81 1009.8
20260830201801 81 207 6.1 9.6 0.00 0.00 0.00 81 1009.7
20260830201706 81 184 6.1 9.6 0.00 0.00 0.00 80 1009.6
20260830201555 81 198 5.2 9.6 0.00 0.00 0.00 81 1009.6
20260830201500 81 164 5.2 9.6 0.00 0.00 0.00 81 1009.7
20260830201405 81 171 5.2 9.6 0.00 0.00 0.00 81 1009.6
20260830201310 81 162 6.1 9.6 0.00 0.00 0.00 80 1009.6
20260830201215 81 189 7.0 9.6 0.00 0.00 0.00 80 1009.8
20260830201059 81 211 7.0 8.7 0.00 0.00 0.00 80 1009.7
20260830201024 81 194 6.1 10.4 0.00 0.00 0.00 80 1009.6
20260830200912 81 170 6.1 10.4 0.00 0.00 0.00 80 1009.6
20260830200816 81 186 7.0 10.4 0.00 0.00 0.00 80 1009.5
20260830200654 81 163 6.1 13.0 0.00 0.00 0.00 80 1009.6
20260830200558 81 171 5.2 13.0 0.00 0.00 0.00 81 1009.6
20260830200503 81 114 6.1 13.0 0.00 0.00 0.00 81 1009.7
20260830200428 81 155 7.0 13.0 0.00 0.00 0.00 80 1009.7
20260830200332 81 190 7.0 13.0 0.00 0.00 0.00 81 1009.7
20260830200200 80 184 7.0 13.0 0.00 0.00 0.00 81 1009.7
20260830200105 80 145 6.1 13.0 0.00 0.00 0.00 80 1009.7
20260830200009 80 153 7.8 13.0 0.00 0.00 0.00 80 1009.7
20260830195934 80 157 9.6 13.0 0.00 0.00 0.00 80 1009.7
20260830195818 81 193 9.6 13.0 0.00 0.00 0.00 80 1009.8
20260830195656 81 211 7.0 13.0 0.00 0.00 0.00 80 1009.7
20260830195605 81 201 7.0 12.2 0.00 0.00 0.00 81 1009.6
20260830195510 81 154 6.1 12.2 0.00 0.00 0.00 81 1009.6
20260830195355 80 173 6.1 13.9 0.00 0.00 0.00 81 1009.6
20260830195259 80 148 6.1 13.9 0.00 0.00 0.00 81 1009.6
20260830195203 80 120 6.1 13.9 0.00 0.00 0.00 81 1009.5
20260830195128 80 161 7.0 13.9 0.00 0.00 0.00 80 1009.5
20260830195032 80 196 7.8 13.9 0.00 0.00 0.00 80 1009.6
20260830194900 80 148 8.7 13.9 0.00 0.00 0.00 80 1009.5
20260830194805 80 150 7.8 13.9 0.00 0.00 0.00 80 1009.6
20260830194729 80 171 7.0 13.9 0.00 0.00 0.00 81 1009.6
20260830194633 80 190 7.8 13.9 0.00 0.00 0.00 81 1009.7
20260830194537 80 167 7.0 13.0 0.00 0.00 0.00 81 1009.7
20260830194354 80 191 7.8 13.0 0.00 0.00 0.00 81 1009.7
20260830194259 80 181 7.8 13.0 0.00 0.00 0.00 81 1009.8
20260830194203 80 179 7.8 13.0 0.00 0.00 0.00 81 1009.8
20260830194128 80 145 7.8 13.0 0.00 0.00 0.00 81 1009.8
20260830194012 80 198 7.8 13.0 0.00 0.00 0.00 81 1009.8
20260830193857 80 204 7.8 14.8 0.00 0.00 0.00 81 1009.9
20260830193759 80 138 7.0 14.8 0.00 0.00 0.00 82 1010.0
20260830193703 80 167 7.0 14.8 0.00 0.00 0.00 82 1009.9
20260830193628 80 168 7.8 14.8 0.00 0.00 0.00 82 1009.9
20260830193456 80 172 7.8 14.8 0.00 0.00 0.00 81 1010.0
20260830193420 80 191 8.7 14.8 0.00 0.00 0.00 82 1010.1
20260830193324 80 155 8.7 14.8 0.00 0.00 0.00 82 1010.1
20260830193207 80 142 8.7 14.8 0.00 0.00 0.00 83 1010.1
20260830193112 79 150 7.8 14.8 0.00 0.00 0.00 82 1010.1
20260830193017 79 140 7.0 13.9 0.00 0.00 0.00 82 1010.1
20260830192900 79 163 7.0 13.9 0.00 0.00 0.00 83 1010.2
20260830192824 79 157 7.0 13.9 0.00 0.00 0.00 82 1010.2
20260830192712 79 165 7.0 13.9 0.00 0.00 0.00 82 1010.2
20260830192556 79 142 6.1 13.9 0.00 0.00 0.00 83 1010.2
20260830192500 79 169 4.3 11.3 0.00 0.00 0.00 83 1010.2
20260830192405 79 161 6.1 11.3 0.00 0.00 0.00 82 1010.2
20260830192310 79 140 7.0 11.3 0.00 0.00 0.00 82 1010.2
20260830192159 79 150 7.8 11.3 0.00 0.00 0.00 82 1010.3
20260830192103 79 134 7.0 11.3 0.00 0.00 0.00 82 1010.4
20260830192028 79 151 6.1 11.3 0.00 0.00 0.00 82 1010.4
20260830191913 79 155 6.1 9.6 0.00 0.00 0.00 82 1010.4
20260830191818 79 206 7.0 9.6 0.00 0.00 0.00 82 1010.4
20260830191655 79 175 7.8 9.6 0.00 0.00 0.00 82 1010.5
20260830191600 79 199 7.0 10.4 0.00 0.00 0.00 82 1010.6
20260830191508 79 173 6.1 10.4 0.00 0.00 0.00 83 1010.6
20260830191354 79 185 5.2 10.4 0.00 0.00 0.00 82 1010.7
20260830191259 79 154 5.2 9.6 0.00 0.00 0.00 83 1010.7
20260830191204 79 176 3.5 9.6 0.00 0.00 0.00 83 1010.7
20260830191129 79 154 4.3 9.6 0.00 0.00 0.00 83 1010.7
20260830191013 79 150 5.2 9.6 0.00 0.00 0.00 82 1010.8
20260830190901 79 165 7.0 9.6 0.00 0.00 0.00 82 1010.8
20260830190806 79 148 7.0 10.4 0.00 0.00 0.00 82 1010.8
20260830190732 79 166 6.1 11.3 0.00 0.00 0.00 83 1010.8
20260830190615 78 196 6.1 9.6 0.00 0.00 0.00 83 1010.7
20260830190459 78 194 6.1 9.6 0.00 0.00 0.00 82 1010.7
20260830190404 78 195 6.1 9.6 0.00 0.00 0.00 82 1010.8
20260830190328 78 165 7.0 9.6 0.00 0.00 0.00 82 1010.8
20260830190156 78 163 6.1 9.6 0.00 0.00 0.00 83 1010.7
20260830190100 78 171 5.2 9.6 0.00 0.00 0.00 83 1010.8
20260830190005 78 146 4.3 9.6 0.00 0.00 0.00 83 1010.7
20260830185909 78 159 4.3 9.6 0.00 0.00 0.00 83 1010.7
20260830185754 78 171 4.3 9.6 0.00 0.00 0.00 83 1010.8
20260830185720 78 171 6.1 9.6 0.00 0.00 0.00 82 1010.8
20260830185607 78 169 6.1 9.6 0.00 0.00 0.00 82 1010.8
20260830185512 78 158 6.1 9.6 0.00 0.00 0.00 82 1010.9
20260830185357 78 176 5.2 9.6 0.00 0.00 0.00 82 1010.9
20260830185302 78 161 6.1 9.6 0.00 0.00 0.00 82 1010.8
20260830185206 78 157 6.1 9.6 0.00 0.00 0.00 83 1010.8
20260830185111 78 175 7.0 9.6 0.00 0.00 0.00 82 1010.9
20260830185001 78 195 7.8 11.3 0.00 0.00 0.00 82 1010.9
20260830184906 78 171 7.0 11.3 0.00 0.00 0.00 82 1010.8
20260830184810 79 163 7.8 11.3 0.00 0.00 0.00 82 1010.8
20260830184656 79 183 7.0 11.3 0.00 0.00 0.00 82 1010.7
20260830184601 79 136 6.1 11.3 0.00 0.00 0.00 83 1010.8
20260830184505 79 163 7.0 11.3 0.00 0.00 0.00 83 1010.7
20260830184413 79 136 7.0 13.9 0.00 0.00 0.00 82 1010.7
20260830184315 79 147 6.1 13.9 0.00 0.00 0.00 84 1010.6
20260830184159 78 153 5.2 13.9 0.00 0.00 0.00 84 1010.7
20260830184122 78 119 5.2 13.9 0.00 0.00 0.00 83 1010.6
20260830184025 78 173 5.2 13.9 0.00 0.00 0.00 83 1010.6
20260830183907 78 161 7.0 13.9 0.00 0.00 0.00 83 1010.6
20260830183811 78 149 7.0 13.9 0.00 0.00 0.00 83 1010.6
20260830183714 78 163 7.8 13.9 0.00 0.00 0.00 83 1010.6
20260830183601 78 192 6.1 13.9 0.00 0.00 0.00 83 1010.7
20260830183524 78 194 6.1 14.8 0.00 0.00 0.00 84 1010.6
20260830183408 78 168 6.1 11.3 0.00 0.00 0.00 83 1010.6
20260830183331 78 138 7.8 11.3 0.00 0.00 0.00 84 1010.7
20260830183215 78 148 7.8 10.4 0.00 0.00 0.00 84 1010.6
20260830183058 78 182 7.8 10.4 0.00 0.00 0.00 84 1010.6
20260830183002 77 194 7.8 10.4 0.00 0.00 0.00 84 1010.6
20260830182911 77 195 7.0 8.7 0.00 0.00 0.00 84 1010.6
20260830182756 77 164 6.1 8.7 0.00 0.00 0.00 84 1010.6
20260830182701 77 188 6.1 9.6 0.00 0.00 0.00 84 1010.6
20260830182625 77 190 5.2 7.0 0.00 0.00 0.00 84 1010.6
20260830182505 77 165 5.2 8.7 0.00 0.00 0.00 84 1010.6
20260830182409 77 184 5.2 8.7 0.00 0.00 0.00 84 1010.6
20260830182259 77 161 5.2 8.7 0.00 0.00 0.00 84 1010.7
20260830182203 77 161 5.2 10.4 0.00 0.00 0.00 84 1010.7
20260830182108 77 143 5.2 10.4 0.00 0.00 0.00 84 1010.7
20260830182033 77 167 5.2 10.4 0.00 0.00 0.00 84 1010.7
20260830181857 77 190 5.2 10.4 0.00 0.00 0.00 84 1010.7
20260830181801 77 142 5.2 10.4 0.00 0.00 0.00 84 1010.8
20260830181706 77 184 6.1 10.4 0.00 0.00 0.00 83 1010.9
20260830181555 77 182 7.0 10.4 0.00 0.00 0.00 84 1011.0
20260830181520 77 195 7.0 10.4 0.00 0.00 0.00 84 1011.0
20260830181357 77 192 6.1 13.0 0.00 0.00 0.00 84 1011.0
20260830181302 77 188 4.3 13.0 0.00 0.00 0.00 84 1011.1
20260830181206 77 166 5.2 13.0 0.00 0.00 0.00 84 1011.1
20260830181056 77 180 7.0 13.0 0.00 0.00 0.00 83 1011.1
20260830181001 77 193 7.0 13.0 0.00 0.00 0.00 83 1011.1
20260830180905 77 180 7.0 13.0 0.00 0.00 0.00 83 1011.1
20260830180829 77 182 7.0 13.0 0.00 0.00 0.00 83 1011.1
20260830180733 77 169 7.8 13.0 0.00 0.00 0.00 83 1011.2
20260830180557 78 159 7.0 12.2 0.00 0.00 0.00 83 1011.2
20260830180522 78 191 6.1 9.6 0.00 0.00 0.00 84 1011.2
20260830180425 78 198 7.0 9.6 0.00 0.00 0.00 84 1011.1
20260830180312 78 177 7.8 9.6 0.00 0.00 0.00 84 1011.1
20260830180158 78 202 6.1 8.7 0.00 0.00 0.00 84 1011.1
20260830180006 78 198 5.2 8.7 0.00 0.00 0.00 84 1011.1
20260830175911 77 171 6.1 8.7 0.00 0.00 0.00 84 1011.1
20260830175816 77 169 5.2 8.7 0.00 0.00 0.00 84 1011.0
20260830175704 77 174 5.2 8.7 0.00 0.00 0.00 84 1011.0
20260830175608 77 178 6.1 9.6 0.00 0.00 0.00 84 1011.0
20260830175454 77 190 6.1 11.3 0.00 0.00 0.00 84 1011.2
20260830175418 77 182 6.1 11.3 0.00 0.00 0.00 84 1011.2
20260830175305 77 207 6.1 11.3 0.00 0.00 0.00 84 1011.2
20260830175206 77 190 5.2 11.3 0.00 0.00 0.00 84 1011.2
20260830175056 77 184 4.3 11.3 0.00 0.00 0.00 85 1011.2
20260830175000 77 206 6.1 11.3 0.00 0.00 0.00 85 1011.3
20260830174925 77 188 7.8 11.3 0.00 0.00 0.00 85 1011.2
20260830174808 77 186 7.8 11.3 0.00 0.00 0.00 84 1011.2
20260830174654 77 150 7.0 11.3 0.00 0.00 0.00 84 1011.2
20260830174558 77 190 7.0 9.6 0.00 0.00 0.00 85 1011.2
20260830174503 77 194 6.1 8.7 0.00 0.00 0.00 85 1011.1
20260830174431 77 169 6.1 7.8 0.00 0.00 0.00 85 1011.1
20260830174254 77 169 6.1 10.4 0.00 0.00 0.00 85 1011.2
20260830174200 77 202 6.1 10.4 0.00 0.00 0.00 85 1011.1
20260830174105 77 195 5.2 10.4 0.00 0.00 0.00 85 1011.2
20260830174010 77 199 4.3 10.4 0.00 0.00 0.00 85 1011.2
20260830173854 77 169 5.2 10.4 0.00 0.00 0.00 85 1011.2
20260830173804 77 204 6.1 10.4 0.00 0.00 0.00 85 1011.1
20260830173709 77 215 6.1 10.4 0.00 0.00 0.00 85 1011.1
20260830173634 77 189 7.0 10.4 0.00 0.00 0.00 85 1011.2
20260830173457 77 173 7.0 10.4 0.00 0.00 0.00 85 1011.2
20260830173401 76 189 7.0 9.6 0.00 0.00 0.00 85 1011.1
20260830173305 77 180 5.2 9.6 0.00 0.00 0.00 85 1011.1
20260830173154 76 171 6.1 9.6 0.00 0.00 0.00 85 1011.2
20260830173058 77 170 7.0 9.6 0.00 0.00 0.00 85 1011.2
20260830173003 77 191 6.1 8.7 0.00 0.00 0.00 85 1011.2
20260830172907 77 202 6.1 8.7 0.00 0.00 0.00 85 1011.2
20260830172812 77 201 6.1 8.7 0.00 0.00 0.00 85 1011.2
20260830172658 76 202 7.0 8.7 0.00 0.00 0.00 85 1011.3
20260830172607 76 184 7.0 8.7 0.00 0.00 0.00 85 1011.3
20260830172511 76 188 6.1 8.7 0.00 0.00 0.00 85 1011.2
20260830172416 76 213 6.1 8.7 0.00 0.00 0.00 86 1011.2
20260830172300 76 213 5.2 8.7 0.00 0.00 0.00 86 1011.2
20260830172204 76 188 4.3 8.7 0.00 0.00 0.00 86 1011.1
20260830172129 76 231 4.3 8.7 0.00 0.00 0.00 85 1011.1
20260830171956 76 194 5.2 8.7 0.00 0.00 0.00 85 1011.1
20260830171901 76 174 5.2 8.7 0.00 0.00 0.00 85 1011.1
20260830171805 76 182 6.1 8.7 0.00 0.00 0.00 85 1011.1
20260830171709 76 190 6.1 8.7 0.00 0.00 0.00 85 1011.1
20260830171634 76 196 6.1 8.7 0.00 0.00 0.00 85 1011.1
20260830171518 76 202 6.1 8.7 0.00 0.00 0.00 85 1011.1
20260830171355 76 197 7.0 8.7 0.00 0.00 0.00 85 1011.0
20260830171325 76 211 7.0 8.7 0.00 0.00 0.00 85 1011.0
20260830171209 76 220 6.1 8.7 0.00 0.00 0.00 86 1011.0
20260830171113 76 205 6.1 8.7 0.00 0.00 0.00 85 1010.9
20260830170958 76 138 6.1 8.7 0.00 0.00 0.00 85 1011.0
20260830170901 76 161 6.1 8.7 0.00 0.00 0.00 86 1010.9
20260830170804 76 129 6.1 8.7 0.00 0.00 0.00 86 1010.9
20260830170713 76 176 5.2 8.7 0.00 0.00 0.00 86 1010.9
20260830170617 76 163 5.2 7.8 0.00 0.00 0.00 86 1010.9
20260830170454 76 180 6.1 7.8 0.00 0.00 0.00 85 1010.9
20260830170358 76 170 6.1 7.8 0.00 0.00 0.00 85 1011.0
20260830170324 76 171 5.2 8.7 0.00 0.00 0.00 86 1010.9
20260830170207 76 163 4.3 8.7 0.00 0.00 0.00 85 1010.9
20260830170056 76 167 3.5 8.7 0.00 0.00 0.00 86 1011.0
20260830170000 76 161 4.3 8.7 0.00 0.00 0.00 86 1011.0
20260830165905 76 177 5.2 8.7 0.00 0.00 0.00 86 1010.9
20260830165810 76 167 6.1 8.7 0.00 0.00 0.00 86 1010.9
20260830165654 76 155 6.1 8.7 0.00 0.00 0.00 85 1010.9
20260830165558 76 178 6.1 8.7 0.00 0.00 0.00 85 1010.9
20260830165507 76 161 6.1 8.7 0.00 0.00 0.00 86 1010.9
20260830165432 76 200 5.2 8.7 0.00 0.00 0.00 86 1011.0
20260830165316 76 191 4.3 8.7 0.00 0.00 0.00 86 1010.9
20260830165159 76 171 3.5 7.0 0.00 0.00 0.00 86 1010.9
20260830165123 76 150 3.5 7.0 0.00 0.00 0.00 86 1010.9
20260830165007 76 141 4.3 7.0 0.00 0.00 0.00 86 1010.9
20260830164913 76 126 4.3 7.0 0.00 0.00 0.00 86 1010.9
20260830164817 76 171 3.5 7.8 0.00 0.00 0.00 87 1010.9
20260830164725 75 156 3.5 7.0 0.00 0.00 0.00 87 1011.0
20260830164628 75 164 3.5 7.8 0.00 0.00 0.00 87 1011.0
20260830164512 75 159 4.3 8.7 0.00 0.00 0.00 87 1010.9
20260830164356 75 175 3.5 8.7 0.00 0.00 0.00 87 1010.9
20260830164301 75 169 3.5 8.7 0.00 0.00 0.00 87 1010.8
20260830164205 75 166 3.5 8.7 0.00 0.00 0.00 87 1010.8
20260830164054 75 157 2.6 8.7 0.00 0.00 0.00 88 1010.8
20260830163959 75 142 3.5 8.7 0.00 0.00 0.00 88 1010.8
20260830163903 75 148 5.2 8.7 0.00 0.00 0.00 87 1010.8
20260830163808 75 132 5.2 8.7 0.00 0.00 0.00 87 1010.8
20260830163653 75 154 5.2 7.8 0.00 0.00 0.00 87 1010.8
20260830163559 75 124 4.3 7.8 0.00 0.00 0.00 87 1010.8
20260830163507 75 155 3.5 7.8 0.00 0.00 0.00 87 1010.8
20260830163412 75 123 3.5 8.7 0.00 0.00 0.00 88 1010.8
20260830163337 75 132 3.5 8.7 0.00 0.00 0.00 87 1010.7
20260830163153 75 137 3.5 9.6 0.00 0.00 0.00 87 1010.8
20260830163058 75 162 4.3 9.6 0.00 0.00 0.00 87 1010.8
20260830163022 75 167 4.3 9.6 0.00 0.00 0.00 87 1010.8
20260830162907 75 140 3.5 9.6 0.00 0.00 0.00 87 1010.8
20260830162755 75 134 3.5 9.6 0.00 0.00 0.00 87 1010.7
20260830162719 75 128 5.2 9.6 0.00 0.00 0.00 87 1010.7
20260830162623 75 153 6.1 9.6 0.00 0.00 0.00 87 1010.6
20260830162505 75 153 6.1 9.6 0.00 0.00 0.00 87 1010.7
20260830162410 75 146 6.1 9.6 0.00 0.00 0.00 87 1010.7
20260830162315 75 175 4.3 8.7 0.00 0.00 0.00 87 1010.7
20260830162219 75 190 4.3 8.7 0.00 0.00 0.00 87 1010.7
20260830162102 75 155 4.3 8.7 0.00 0.00 0.00 87 1010.7
20260830162011 74 161 4.3 8.7 0.00 0.00 0.00 87 1010.7
20260830161938 75 171 5.2 9.6 0.00 0.00 0.00 87 1010.8
20260830161754 74 171 5.2 9.6 0.00 0.00 0.00 87 1010.7
20260830161700 74 173 4.3 9.6 0.00 0.00 0.00 87 1010.7
20260830161605 74 178 5.2 9.6 0.00 0.00 0.00 87 1010.7
20260830161509 74 192 6.1 9.6 0.00 0.00 0.00 87 1010.7
20260830161358 74 163 6.1 9.6 0.00 0.00 0.00 87 1010.7
20260830161303 74 146 7.0 9.6 0.00 0.00 0.00 87 1010.7
20260830161207 74 183 7.0 9.6 0.00 0.00 0.00 87 1010.7
20260830161112 74 153 7.0 9.6 0.00 0.00 0.00 87 1010.7
20260830160958 74 202 5.2 9.6 0.00 0.00 0.00 87 1010.7
20260830160902 74 182 5.2 9.6 0.00 0.00 0.00 87 1010.7
20260830160827 74 171 4.3 9.6 0.00 0.00 0.00 87 1010.7
20260830160717 74 173 5.2 9.6 0.00 0.00 0.00 87 1010.8
20260830160555 74 184 6.1 9.6 0.00 0.00 0.00 87 1010.7
20260830160459 74 146 7.0 9.6 0.00 0.00 0.00 87 1010.6
20260830160405 74 206 5.2 9.6 0.00 0.00 0.00 87 1010.7
20260830160309 74 147 6.1 9.6 0.00 0.00 0.00 87 1010.7
20260830160158 74 159 5.2 9.6 0.00 0.00 0.00 87 1010.7
20260830160104 74 180 4.3 10.4 0.00 0.00 0.00 87 1010.7
20260830160009 74 165 4.3 10.4 0.00 0.00 0.00 87 1010.7
20260830155913 74 167 4.3 10.4 0.00 0.00 0.00 87 1010.7
20260830155818 74 148 5.2 10.4 0.00 0.00 0.00 87 1010.8
20260830155655 74 175 6.1 10.4 0.00 0.00 0.00 87 1010.9
20260830155619 74 152 6.1 10.4 0.00 0.00 0.00 87 1010.9
20260830155506 74 161 7.0 10.4 0.00 0.00 0.00 87 1010.9
20260830155411 74 142 6.1 10.4 0.00 0.00 0.00 87 1010.9
20260830155317 74 153 4.3 9.6 0.00 0.00 0.00 87 1010.8
20260830155155 74 140 5.2 9.6 0.00 0.00 0.00 87 1010.9
20260830155059 74 145 6.1 9.6 0.00 0.00 0.00 87 1011.0
20260830155025 74 189 7.0 9.6 0.00 0.00 0.00 87 1010.9
20260830154913 74 184 6.1 9.6 0.00 0.00 0.00 87 1010.9
20260830154819 74 139 6.1 9.6 0.00 0.00 0.00 87 1010.9
20260830154656 74 192 5.2 9.6 0.00 0.00 0.00 87 1010.8
20260830154602 74 158 6.1 9.6 0.00 0.00 0.00 87 1010.8
20260830154507 75 127 6.1 9.6 0.00 0.00 0.00 87 1010.8
20260830154411 74 147 4.3 9.6 0.00 0.00 0.00 87 1010.7
20260830154319 75 167 3.5 9.6 0.00 0.00 0.00 87 1010.7
20260830154157 74 156 5.2 9.6 0.00 0.00 0.00 87 1010.6
20260830154102 74 171 5.2 9.6 0.00 0.00 0.00 88 1010.7
20260830154006 74 123 5.2 9.6 0.00 0.00 0.00 88 1010.7
20260830153911 74 148 5.2 9.6 0.00 0.00 0.00 88 1010.6
20260830153816 74 140 4.3 9.6 0.00 0.00 0.00 88 1010.7
20260830153704 74 159 4.3 9.6 0.00 0.00 0.00 88 1010.7
20260830153628 74 158 4.3 9.6 0.00 0.00 0.00 88 1010.7
20260830153512 74 163 4.3 9.6 0.00 0.00 0.00 88 1010.8
20260830153358 74 177 4.3 9.6 0.00 0.00 0.00 88 1010.8
20260830153302 74 163 5.2 9.6 0.00 0.00 0.00 88 1010.8
20260830153207 74 175 5.2 9.6 0.00 0.00 0.00 88 1010.8
20260830153133 74 183 5.2 9.6 0.00 0.00 0.00 88 1010.8
20260830153001 74 172 5.2 8.7 0.00 0.00 0.00 88 1010.8
20260830152906 74 159 5.2 8.7 0.00 0.00 0.00 87 1010.8
20260830152811 74 165 5.2 8.7 0.00 0.00 0.00 88 1010.8
20260830152655 74 188 4.3 8.7 0.00 0.00 0.00 88 1010.8
20260830152601 74 192 4.3 8.7 0.00 0.00 0.00 88 1010.8
20260830152506 74 189 5.2 8.7 0.00 0.00 0.00 88 1010.8
20260830152415 74 190 4.3 8.7 0.00 0.00 0.00 88 1010.6
20260830152258 74 176 4.3 8.7 0.00 0.00 0.00 88 1010.6
20260830152203 74 173 5.2 8.7 0.00 0.00 0.00 88 1010.5
20260830152107 74 215 5.2 8.7 0.00 0.00 0.00 88 1010.5
20260830152012 73 171 5.2 8.7 0.00 0.00 0.00 89 1010.4
20260830151856 73 166 5.2 8.7 0.00 0.00 0.00 89 1010.4
20260830151805 73 188 6.1 8.7 0.00 0.00 0.00 88 1010.5
20260830151709 73 138 6.1 8.7 0.00 0.00 0.00 88 1010.5
20260830151554 73 179 6.1 8.7 0.00 0.00 0.00 89 1010.4
20260830151459 73 191 7.0 9.6 0.00 0.00 0.00 89 1010.4
20260830151403 73 196 6.1 10.4 0.00 0.00 0.00 89 1010.3
20260830151308 73 193 4.3 10.4 0.00 0.00 0.00 89 1010.3
20260830151216 73 184 4.3 10.4 0.00 0.00 0.00 89 1010.2
20260830151119 73 161 5.2 10.4 0.00 0.00 0.00 89 1010.3
20260830150956 73 178 6.1 10.4 0.00 0.00 0.00 89 1010.2
20260830150921 73 180 6.1 10.4 0.00 0.00 0.00 89 1010.3
20260830150805 73 137 6.1 10.4 0.00 0.00 0.00 89 1010.2
20260830150710 73 152 7.0 10.4 0.00 0.00 0.00 88 1010.2